<?xml version="1.0" encoding="UTF-8" standalone="no" ?>
<gpx xmlns="http://www.topografix.com/GPX/1/1" xmlns:xsi="http://www.w3.org/2001/XMLSchema-instance" xsi:schemaLocation="http://www.topografix.com/GPX/1/1 http://www.topografix.com/GPX/1/1/gpx.xsd" version="1.1" creator="VisuGPX - https://www.visugpx.com">
  <metadata>
    <name>Tournaboup Vieille Aure</name>
    <desc><![CDATA[GRP (Liaison Tournaboup Vieille aure]]></desc>
  </metadata>
  <trk>
    <name><![CDATA[[object Object]]]></name>
    <trkseg>
      <trkpt lat="42.88316" lon="0.11213">
        <ele>1762</ele>
        <time>2022-07-25T11:06:11Z</time>
      </trkpt>
      <trkpt lat="42.88308" lon="0.1124">
        <ele>1765</ele>
        <time>2022-07-25T11:06:11Z</time>
      </trkpt>
      <trkpt lat="42.88307" lon="0.11256">
        <ele>1767</ele>
        <time>2022-07-25T11:06:11Z</time>
      </trkpt>
      <trkpt lat="42.88309" lon="0.11266">
        <ele>1768</ele>
        <time>2022-07-25T11:06:11Z</time>
      </trkpt>
      <trkpt lat="42.88307" lon="0.11273">
        <ele>1769</ele>
        <time>2022-07-25T11:06:11Z</time>
      </trkpt>
      <trkpt lat="42.88298" lon="0.1128">
        <ele>1769</ele>
        <time>2022-07-25T11:06:11Z</time>
      </trkpt>
      <trkpt lat="42.88291" lon="0.11307">
        <ele>1772</ele>
        <time>2022-07-25T11:06:11Z</time>
      </trkpt>
      <trkpt lat="42.88293" lon="0.11323">
        <ele>1774</ele>
        <time>2022-07-25T11:06:11Z</time>
      </trkpt>
      <trkpt lat="42.88292" lon="0.11334">
        <ele>1776</ele>
        <time>2022-07-25T11:06:11Z</time>
      </trkpt>
      <trkpt lat="42.88277" lon="0.11361">
        <ele>1777</ele>
        <time>2022-07-25T11:06:11Z</time>
      </trkpt>
      <trkpt lat="42.88285" lon="0.11391">
        <ele>1781</ele>
        <time>2022-07-25T11:06:11Z</time>
      </trkpt>
      <trkpt lat="42.88268" lon="0.11442">
        <ele>1784</ele>
        <time>2022-07-25T11:06:11Z</time>
      </trkpt>
      <trkpt lat="42.88265" lon="0.11468">
        <ele>1786</ele>
        <time>2022-07-25T11:06:11Z</time>
      </trkpt>
      <trkpt lat="42.88259" lon="0.11481">
        <ele>1786</ele>
        <time>2022-07-25T11:06:11Z</time>
      </trkpt>
      <trkpt lat="42.88261" lon="0.11502">
        <ele>1789</ele>
        <time>2022-07-25T11:06:11Z</time>
      </trkpt>
      <trkpt lat="42.88269" lon="0.11517">
        <ele>1794</ele>
        <time>2022-07-25T11:06:11Z</time>
      </trkpt>
      <trkpt lat="42.88259" lon="0.11578">
        <ele>1800</ele>
        <time>2022-07-25T11:06:11Z</time>
      </trkpt>
      <trkpt lat="42.88267" lon="0.1158">
        <ele>1803</ele>
        <time>2022-07-25T11:06:11Z</time>
      </trkpt>
      <trkpt lat="42.88268" lon="0.11592">
        <ele>1805</ele>
        <time>2022-07-25T11:06:11Z</time>
      </trkpt>
      <trkpt lat="42.88263" lon="0.11598">
        <ele>1805</ele>
        <time>2022-07-25T11:06:11Z</time>
      </trkpt>
      <trkpt lat="42.88262" lon="0.1163">
        <ele>1810</ele>
        <time>2022-07-25T11:06:11Z</time>
      </trkpt>
      <trkpt lat="42.88257" lon="0.11669">
        <ele>1815</ele>
        <time>2022-07-25T11:06:11Z</time>
      </trkpt>
      <trkpt lat="42.88261" lon="0.11668">
        <ele>1816</ele>
        <time>2022-07-25T11:06:11Z</time>
      </trkpt>
      <trkpt lat="42.88264" lon="0.11689">
        <ele>1820</ele>
        <time>2022-07-25T11:06:11Z</time>
      </trkpt>
      <trkpt lat="42.88251" lon="0.11753">
        <ele>1826</ele>
        <time>2022-07-25T11:06:11Z</time>
      </trkpt>
      <trkpt lat="42.8824" lon="0.11768">
        <ele>1826</ele>
        <time>2022-07-25T11:06:11Z</time>
      </trkpt>
      <trkpt lat="42.8823" lon="0.1179">
        <ele>1827</ele>
        <time>2022-07-25T11:06:11Z</time>
      </trkpt>
      <trkpt lat="42.88233" lon="0.11806">
        <ele>1830</ele>
        <time>2022-07-25T11:06:11Z</time>
      </trkpt>
      <trkpt lat="42.88225" lon="0.11826">
        <ele>1831</ele>
        <time>2022-07-25T11:06:11Z</time>
      </trkpt>
      <trkpt lat="42.88224" lon="0.11837">
        <ele>1833</ele>
        <time>2022-07-25T11:06:11Z</time>
      </trkpt>
      <trkpt lat="42.88225" lon="0.11855">
        <ele>1836</ele>
        <time>2022-07-25T11:06:11Z</time>
      </trkpt>
      <trkpt lat="42.88222" lon="0.11884">
        <ele>1840</ele>
        <time>2022-07-25T11:06:11Z</time>
      </trkpt>
      <trkpt lat="42.88224" lon="0.1191">
        <ele>1844</ele>
        <time>2022-07-25T11:06:11Z</time>
      </trkpt>
      <trkpt lat="42.8822" lon="0.1192">
        <ele>1846</ele>
        <time>2022-07-25T11:06:11Z</time>
      </trkpt>
      <trkpt lat="42.88215" lon="0.11923">
        <ele>1846</ele>
        <time>2022-07-25T11:06:11Z</time>
      </trkpt>
      <trkpt lat="42.88214" lon="0.11935">
        <ele>1848</ele>
        <time>2022-07-25T11:06:11Z</time>
      </trkpt>
      <trkpt lat="42.88212" lon="0.11939">
        <ele>1849</ele>
        <time>2022-07-25T11:06:11Z</time>
      </trkpt>
      <trkpt lat="42.88208" lon="0.11936">
        <ele>1848</ele>
        <time>2022-07-25T11:06:11Z</time>
      </trkpt>
      <trkpt lat="42.88205" lon="0.11947">
        <ele>1850</ele>
        <time>2022-07-25T11:06:11Z</time>
      </trkpt>
      <trkpt lat="42.88202" lon="0.11948">
        <ele>1850</ele>
        <time>2022-07-25T11:06:11Z</time>
      </trkpt>
      <trkpt lat="42.88198" lon="0.11938">
        <ele>1849</ele>
        <time>2022-07-25T11:06:11Z</time>
      </trkpt>
      <trkpt lat="42.88185" lon="0.11979">
        <ele>1857</ele>
        <time>2022-07-25T11:06:11Z</time>
      </trkpt>
      <trkpt lat="42.88179" lon="0.11987">
        <ele>1859</ele>
        <time>2022-07-25T11:06:11Z</time>
      </trkpt>
      <trkpt lat="42.88177" lon="0.12001">
        <ele>1862</ele>
        <time>2022-07-25T11:06:11Z</time>
      </trkpt>
      <trkpt lat="42.88177" lon="0.12011">
        <ele>1863</ele>
        <time>2022-07-25T11:06:11Z</time>
      </trkpt>
      <trkpt lat="42.88188" lon="0.12041">
        <ele>1867</ele>
        <time>2022-07-25T11:06:11Z</time>
      </trkpt>
      <trkpt lat="42.88207" lon="0.12064">
        <ele>1869</ele>
        <time>2022-07-25T11:06:11Z</time>
      </trkpt>
      <trkpt lat="42.88216" lon="0.12072">
        <ele>1869</ele>
        <time>2022-07-25T11:06:11Z</time>
      </trkpt>
      <trkpt lat="42.88225" lon="0.12091">
        <ele>1872</ele>
        <time>2022-07-25T11:06:11Z</time>
      </trkpt>
      <trkpt lat="42.88239" lon="0.12106">
        <ele>1873</ele>
        <time>2022-07-25T11:06:11Z</time>
      </trkpt>
      <trkpt lat="42.88243" lon="0.12126">
        <ele>1876</ele>
        <time>2022-07-25T11:06:11Z</time>
      </trkpt>
      <trkpt lat="42.88246" lon="0.12159">
        <ele>1881</ele>
        <time>2022-07-25T11:06:11Z</time>
      </trkpt>
      <trkpt lat="42.8824" lon="0.12189">
        <ele>1883</ele>
        <time>2022-07-25T11:06:11Z</time>
      </trkpt>
      <trkpt lat="42.88236" lon="0.12248">
        <ele>1886</ele>
        <time>2022-07-25T11:06:11Z</time>
      </trkpt>
      <trkpt lat="42.88242" lon="0.12273">
        <ele>1887</ele>
        <time>2022-07-25T11:06:11Z</time>
      </trkpt>
      <trkpt lat="42.88241" lon="0.12292">
        <ele>1888</ele>
        <time>2022-07-25T11:06:11Z</time>
      </trkpt>
      <trkpt lat="42.88243" lon="0.1232">
        <ele>1890</ele>
        <time>2022-07-25T11:06:11Z</time>
      </trkpt>
      <trkpt lat="42.88243" lon="0.12372">
        <ele>1892</ele>
        <time>2022-07-25T11:06:11Z</time>
      </trkpt>
      <trkpt lat="42.8825" lon="0.1242">
        <ele>1895</ele>
        <time>2022-07-25T11:06:11Z</time>
      </trkpt>
      <trkpt lat="42.8825" lon="0.12422">
        <ele>1895</ele>
        <time>2022-07-25T11:06:11Z</time>
      </trkpt>
      <trkpt lat="42.88256" lon="0.12445">
        <ele>1896</ele>
        <time>2022-07-25T11:06:11Z</time>
      </trkpt>
      <trkpt lat="42.88264" lon="0.12467">
        <ele>1899</ele>
        <time>2022-07-25T11:06:11Z</time>
      </trkpt>
      <trkpt lat="42.88263" lon="0.12481">
        <ele>1900</ele>
        <time>2022-07-25T11:06:11Z</time>
      </trkpt>
      <trkpt lat="42.88258" lon="0.12488">
        <ele>1899</ele>
        <time>2022-07-25T11:06:11Z</time>
      </trkpt>
      <trkpt lat="42.88251" lon="0.12488">
        <ele>1898</ele>
        <time>2022-07-25T11:06:11Z</time>
      </trkpt>
      <trkpt lat="42.88228" lon="0.12542">
        <ele>1901</ele>
        <time>2022-07-25T11:06:11Z</time>
      </trkpt>
      <trkpt lat="42.88229" lon="0.1255">
        <ele>1902</ele>
        <time>2022-07-25T11:06:11Z</time>
      </trkpt>
      <trkpt lat="42.88227" lon="0.12555">
        <ele>1902</ele>
        <time>2022-07-25T11:06:11Z</time>
      </trkpt>
      <trkpt lat="42.88223" lon="0.12558">
        <ele>1902</ele>
        <time>2022-07-25T11:06:11Z</time>
      </trkpt>
      <trkpt lat="42.88218" lon="0.12558">
        <ele>1901</ele>
        <time>2022-07-25T11:06:11Z</time>
      </trkpt>
      <trkpt lat="42.88211" lon="0.12546">
        <ele>1900</ele>
        <time>2022-07-25T11:06:11Z</time>
      </trkpt>
      <trkpt lat="42.88207" lon="0.12545">
        <ele>1899</ele>
        <time>2022-07-25T11:06:11Z</time>
      </trkpt>
      <trkpt lat="42.88202" lon="0.12553">
        <ele>1899</ele>
        <time>2022-07-25T11:06:11Z</time>
      </trkpt>
      <trkpt lat="42.882" lon="0.12563">
        <ele>1900</ele>
        <time>2022-07-25T11:06:11Z</time>
      </trkpt>
      <trkpt lat="42.88199" lon="0.12594">
        <ele>1901</ele>
        <time>2022-07-25T11:06:11Z</time>
      </trkpt>
      <trkpt lat="42.88202" lon="0.12612">
        <ele>1903</ele>
        <time>2022-07-25T11:06:11Z</time>
      </trkpt>
      <trkpt lat="42.88199" lon="0.12627">
        <ele>1904</ele>
        <time>2022-07-25T11:06:11Z</time>
      </trkpt>
      <trkpt lat="42.88202" lon="0.12678">
        <ele>1909</ele>
        <time>2022-07-25T11:06:11Z</time>
      </trkpt>
      <trkpt lat="42.88197" lon="0.12719">
        <ele>1912</ele>
        <time>2022-07-25T11:06:11Z</time>
      </trkpt>
      <trkpt lat="42.88202" lon="0.1274">
        <ele>1916</ele>
        <time>2022-07-25T11:06:11Z</time>
      </trkpt>
      <trkpt lat="42.88201" lon="0.1275">
        <ele>1917</ele>
        <time>2022-07-25T11:06:11Z</time>
      </trkpt>
      <trkpt lat="42.88195" lon="0.12771">
        <ele>1917</ele>
        <time>2022-07-25T11:06:11Z</time>
      </trkpt>
      <trkpt lat="42.88221" lon="0.12787">
        <ele>1928</ele>
        <time>2022-07-25T11:06:11Z</time>
      </trkpt>
      <trkpt lat="42.88234" lon="0.12797">
        <ele>1934</ele>
        <time>2022-07-25T11:06:11Z</time>
      </trkpt>
      <trkpt lat="42.88237" lon="0.12804">
        <ele>1937</ele>
        <time>2022-07-25T11:06:11Z</time>
      </trkpt>
      <trkpt lat="42.88227" lon="0.1283">
        <ele>1936</ele>
        <time>2022-07-25T11:06:11Z</time>
      </trkpt>
      <trkpt lat="42.88224" lon="0.1286">
        <ele>1938</ele>
        <time>2022-07-25T11:06:11Z</time>
      </trkpt>
      <trkpt lat="42.88227" lon="0.12876">
        <ele>1940</ele>
        <time>2022-07-25T11:06:11Z</time>
      </trkpt>
      <trkpt lat="42.88219" lon="0.12906">
        <ele>1940</ele>
        <time>2022-07-25T11:06:11Z</time>
      </trkpt>
      <trkpt lat="42.88221" lon="0.12925">
        <ele>1943</ele>
        <time>2022-07-25T11:06:11Z</time>
      </trkpt>
      <trkpt lat="42.88215" lon="0.12944">
        <ele>1942</ele>
        <time>2022-07-25T11:06:11Z</time>
      </trkpt>
      <trkpt lat="42.88211" lon="0.12965">
        <ele>1943</ele>
        <time>2022-07-25T11:06:11Z</time>
      </trkpt>
      <trkpt lat="42.8821" lon="0.12966">
        <ele>1942</ele>
        <time>2022-07-25T11:06:11Z</time>
      </trkpt>
      <trkpt lat="42.88204" lon="0.1303">
        <ele>1946</ele>
        <time>2022-07-25T11:06:11Z</time>
      </trkpt>
      <trkpt lat="42.88184" lon="0.13087">
        <ele>1944</ele>
        <time>2022-07-25T11:06:11Z</time>
      </trkpt>
      <trkpt lat="42.88178" lon="0.13114">
        <ele>1945</ele>
        <time>2022-07-25T11:06:11Z</time>
      </trkpt>
      <trkpt lat="42.88177" lon="0.13142">
        <ele>1947</ele>
        <time>2022-07-25T11:06:11Z</time>
      </trkpt>
      <trkpt lat="42.88171" lon="0.13152">
        <ele>1948</ele>
        <time>2022-07-25T11:06:11Z</time>
      </trkpt>
      <trkpt lat="42.88154" lon="0.13218">
        <ele>1951</ele>
        <time>2022-07-25T11:06:11Z</time>
      </trkpt>
      <trkpt lat="42.88155" lon="0.13233">
        <ele>1952</ele>
        <time>2022-07-25T11:06:11Z</time>
      </trkpt>
      <trkpt lat="42.88149" lon="0.13271">
        <ele>1954</ele>
        <time>2022-07-25T11:06:11Z</time>
      </trkpt>
      <trkpt lat="42.88144" lon="0.13287">
        <ele>1955</ele>
        <time>2022-07-25T11:06:11Z</time>
      </trkpt>
      <trkpt lat="42.88139" lon="0.13342">
        <ele>1958</ele>
        <time>2022-07-25T11:06:11Z</time>
      </trkpt>
      <trkpt lat="42.88142" lon="0.13363">
        <ele>1960</ele>
        <time>2022-07-25T11:06:11Z</time>
      </trkpt>
      <trkpt lat="42.88166" lon="0.13409">
        <ele>1966</ele>
        <time>2022-07-25T11:06:11Z</time>
      </trkpt>
      <trkpt lat="42.88164" lon="0.13439">
        <ele>1969</ele>
        <time>2022-07-25T11:06:11Z</time>
      </trkpt>
      <trkpt lat="42.88159" lon="0.13465">
        <ele>1971</ele>
        <time>2022-07-25T11:06:11Z</time>
      </trkpt>
      <trkpt lat="42.88143" lon="0.13505">
        <ele>1974</ele>
        <time>2022-07-25T11:06:11Z</time>
      </trkpt>
      <trkpt lat="42.88129" lon="0.13513">
        <ele>1974</ele>
        <time>2022-07-25T11:06:11Z</time>
      </trkpt>
      <trkpt lat="42.88115" lon="0.13528">
        <ele>1976</ele>
        <time>2022-07-25T11:06:11Z</time>
      </trkpt>
      <trkpt lat="42.88107" lon="0.1355">
        <ele>1978</ele>
        <time>2022-07-25T11:06:11Z</time>
      </trkpt>
      <trkpt lat="42.88096" lon="0.13566">
        <ele>1980</ele>
        <time>2022-07-25T11:06:11Z</time>
      </trkpt>
      <trkpt lat="42.88092" lon="0.1359">
        <ele>1983</ele>
        <time>2022-07-25T11:06:11Z</time>
      </trkpt>
      <trkpt lat="42.88094" lon="0.13591">
        <ele>1984</ele>
        <time>2022-07-25T11:06:11Z</time>
      </trkpt>
      <trkpt lat="42.88102" lon="0.13587">
        <ele>1983</ele>
        <time>2022-07-25T11:06:11Z</time>
      </trkpt>
      <trkpt lat="42.88104" lon="0.13591">
        <ele>1984</ele>
        <time>2022-07-25T11:06:11Z</time>
      </trkpt>
      <trkpt lat="42.88103" lon="0.13618">
        <ele>1987</ele>
        <time>2022-07-25T11:06:11Z</time>
      </trkpt>
      <trkpt lat="42.88098" lon="0.1364">
        <ele>1990</ele>
        <time>2022-07-25T11:06:11Z</time>
      </trkpt>
      <trkpt lat="42.88097" lon="0.13659">
        <ele>1993</ele>
        <time>2022-07-25T11:06:11Z</time>
      </trkpt>
      <trkpt lat="42.88105" lon="0.13665">
        <ele>1994</ele>
        <time>2022-07-25T11:06:11Z</time>
      </trkpt>
      <trkpt lat="42.88104" lon="0.13676">
        <ele>1996</ele>
        <time>2022-07-25T11:06:11Z</time>
      </trkpt>
      <trkpt lat="42.88106" lon="0.1368">
        <ele>1997</ele>
        <time>2022-07-25T11:06:11Z</time>
      </trkpt>
      <trkpt lat="42.88105" lon="0.13702">
        <ele>2001</ele>
        <time>2022-07-25T11:06:11Z</time>
      </trkpt>
      <trkpt lat="42.88101" lon="0.13712">
        <ele>2002</ele>
        <time>2022-07-25T11:06:11Z</time>
      </trkpt>
      <trkpt lat="42.881" lon="0.13738">
        <ele>2007</ele>
        <time>2022-07-25T11:06:11Z</time>
      </trkpt>
      <trkpt lat="42.88097" lon="0.13746">
        <ele>2009</ele>
        <time>2022-07-25T11:06:11Z</time>
      </trkpt>
      <trkpt lat="42.88088" lon="0.1379">
        <ele>2019</ele>
        <time>2022-07-25T11:06:11Z</time>
      </trkpt>
      <trkpt lat="42.88086" lon="0.13807">
        <ele>2023</ele>
        <time>2022-07-25T11:06:11Z</time>
      </trkpt>
      <trkpt lat="42.88082" lon="0.13811">
        <ele>2023</ele>
        <time>2022-07-25T11:06:11Z</time>
      </trkpt>
      <trkpt lat="42.88075" lon="0.13812">
        <ele>2021</ele>
        <time>2022-07-25T11:06:11Z</time>
      </trkpt>
      <trkpt lat="42.88037" lon="0.1379">
        <ele>2009</ele>
        <time>2022-07-25T11:06:11Z</time>
      </trkpt>
      <trkpt lat="42.88023" lon="0.13784">
        <ele>2005</ele>
        <time>2022-07-25T11:06:11Z</time>
      </trkpt>
      <trkpt lat="42.88016" lon="0.13792">
        <ele>2005</ele>
        <time>2022-07-25T11:06:11Z</time>
      </trkpt>
      <trkpt lat="42.87999" lon="0.13797">
        <ele>2005</ele>
        <time>2022-07-25T11:06:11Z</time>
      </trkpt>
      <trkpt lat="42.87989" lon="0.13814">
        <ele>2006</ele>
        <time>2022-07-25T11:06:11Z</time>
      </trkpt>
      <trkpt lat="42.87982" lon="0.13834">
        <ele>2009</ele>
        <time>2022-07-25T11:06:11Z</time>
      </trkpt>
      <trkpt lat="42.87976" lon="0.13865">
        <ele>2015</ele>
        <time>2022-07-25T11:06:11Z</time>
      </trkpt>
      <trkpt lat="42.87973" lon="0.13894">
        <ele>2020</ele>
        <time>2022-07-25T11:06:11Z</time>
      </trkpt>
      <trkpt lat="42.87959" lon="0.13917">
        <ele>2023</ele>
        <time>2022-07-25T11:06:11Z</time>
      </trkpt>
      <trkpt lat="42.87952" lon="0.13938">
        <ele>2025</ele>
        <time>2022-07-25T11:06:11Z</time>
      </trkpt>
      <trkpt lat="42.8795" lon="0.13979">
        <ele>2031</ele>
        <time>2022-07-25T11:06:11Z</time>
      </trkpt>
      <trkpt lat="42.87945" lon="0.14007">
        <ele>2035</ele>
        <time>2022-07-25T11:06:11Z</time>
      </trkpt>
      <trkpt lat="42.87949" lon="0.14046">
        <ele>2041</ele>
        <time>2022-07-25T11:06:11Z</time>
      </trkpt>
      <trkpt lat="42.87937" lon="0.14091">
        <ele>2047</ele>
        <time>2022-07-25T11:06:11Z</time>
      </trkpt>
      <trkpt lat="42.87924" lon="0.14106">
        <ele>2048</ele>
        <time>2022-07-25T11:06:11Z</time>
      </trkpt>
      <trkpt lat="42.87917" lon="0.1414">
        <ele>2053</ele>
        <time>2022-07-25T11:06:11Z</time>
      </trkpt>
      <trkpt lat="42.87904" lon="0.14155">
        <ele>2054</ele>
        <time>2022-07-25T11:06:11Z</time>
      </trkpt>
      <trkpt lat="42.87902" lon="0.14188">
        <ele>2060</ele>
        <time>2022-07-25T11:06:11Z</time>
      </trkpt>
      <trkpt lat="42.87891" lon="0.14259">
        <ele>2070</ele>
        <time>2022-07-25T11:06:11Z</time>
      </trkpt>
      <trkpt lat="42.87882" lon="0.14272">
        <ele>2070</ele>
        <time>2022-07-25T11:06:11Z</time>
      </trkpt>
      <trkpt lat="42.87879" lon="0.14286">
        <ele>2072</ele>
        <time>2022-07-25T11:06:11Z</time>
      </trkpt>
      <trkpt lat="42.8787" lon="0.14292">
        <ele>2071</ele>
        <time>2022-07-25T11:06:11Z</time>
      </trkpt>
      <trkpt lat="42.87864" lon="0.14303">
        <ele>2071</ele>
        <time>2022-07-25T11:06:11Z</time>
      </trkpt>
      <trkpt lat="42.87856" lon="0.14309">
        <ele>2070</ele>
        <time>2022-07-25T11:06:11Z</time>
      </trkpt>
      <trkpt lat="42.87844" lon="0.14336">
        <ele>2071</ele>
        <time>2022-07-25T11:06:11Z</time>
      </trkpt>
      <trkpt lat="42.87832" lon="0.14378">
        <ele>2075</ele>
        <time>2022-07-25T11:06:11Z</time>
      </trkpt>
      <trkpt lat="42.87814" lon="0.14423">
        <ele>2078</ele>
        <time>2022-07-25T11:06:11Z</time>
      </trkpt>
      <trkpt lat="42.87819" lon="0.14441">
        <ele>2080</ele>
        <time>2022-07-25T11:06:11Z</time>
      </trkpt>
      <trkpt lat="42.87818" lon="0.14473">
        <ele>2083</ele>
        <time>2022-07-25T11:06:11Z</time>
      </trkpt>
      <trkpt lat="42.87812" lon="0.14499">
        <ele>2085</ele>
        <time>2022-07-25T11:06:11Z</time>
      </trkpt>
      <trkpt lat="42.8781" lon="0.14537">
        <ele>2089</ele>
        <time>2022-07-25T11:06:11Z</time>
      </trkpt>
      <trkpt lat="42.87807" lon="0.1455">
        <ele>2090</ele>
        <time>2022-07-25T11:06:11Z</time>
      </trkpt>
      <trkpt lat="42.87807" lon="0.14551">
        <ele>2090</ele>
        <time>2022-07-25T11:06:11Z</time>
      </trkpt>
      <trkpt lat="42.87803" lon="0.14571">
        <ele>2092</ele>
        <time>2022-07-25T11:06:11Z</time>
      </trkpt>
      <trkpt lat="42.87793" lon="0.14591">
        <ele>2092</ele>
        <time>2022-07-25T11:06:11Z</time>
      </trkpt>
      <trkpt lat="42.87786" lon="0.14597">
        <ele>2092</ele>
        <time>2022-07-25T11:06:11Z</time>
      </trkpt>
      <trkpt lat="42.87769" lon="0.14597">
        <ele>2088</ele>
        <time>2022-07-25T11:06:11Z</time>
      </trkpt>
      <trkpt lat="42.87729" lon="0.1459">
        <ele>2089</ele>
        <time>2022-07-25T11:06:11Z</time>
      </trkpt>
      <trkpt lat="42.87706" lon="0.14599">
        <ele>2093</ele>
        <time>2022-07-25T11:06:11Z</time>
      </trkpt>
      <trkpt lat="42.87686" lon="0.14613">
        <ele>2096</ele>
        <time>2022-07-25T11:06:11Z</time>
      </trkpt>
      <trkpt lat="42.87671" lon="0.14632">
        <ele>2099</ele>
        <time>2022-07-25T11:06:11Z</time>
      </trkpt>
      <trkpt lat="42.87658" lon="0.14669">
        <ele>2103</ele>
        <time>2022-07-25T11:06:11Z</time>
      </trkpt>
      <trkpt lat="42.87642" lon="0.14699">
        <ele>2108</ele>
        <time>2022-07-25T11:06:11Z</time>
      </trkpt>
      <trkpt lat="42.87639" lon="0.14715">
        <ele>2110</ele>
        <time>2022-07-25T11:06:11Z</time>
      </trkpt>
      <trkpt lat="42.87629" lon="0.14726">
        <ele>2112</ele>
        <time>2022-07-25T11:06:11Z</time>
      </trkpt>
      <trkpt lat="42.87617" lon="0.14768">
        <ele>2118</ele>
        <time>2022-07-25T11:06:11Z</time>
      </trkpt>
      <trkpt lat="42.87599" lon="0.14791">
        <ele>2122</ele>
        <time>2022-07-25T11:06:11Z</time>
      </trkpt>
      <trkpt lat="42.87595" lon="0.14813">
        <ele>2124</ele>
        <time>2022-07-25T11:06:11Z</time>
      </trkpt>
      <trkpt lat="42.87583" lon="0.14824">
        <ele>2126</ele>
        <time>2022-07-25T11:06:11Z</time>
      </trkpt>
      <trkpt lat="42.8757" lon="0.14841">
        <ele>2127</ele>
        <time>2022-07-25T11:06:11Z</time>
      </trkpt>
      <trkpt lat="42.87559" lon="0.14871">
        <ele>2130</ele>
        <time>2022-07-25T11:06:11Z</time>
      </trkpt>
      <trkpt lat="42.8755" lon="0.14888">
        <ele>2132</ele>
        <time>2022-07-25T11:06:11Z</time>
      </trkpt>
      <trkpt lat="42.87543" lon="0.14895">
        <ele>2133</ele>
        <time>2022-07-25T11:06:11Z</time>
      </trkpt>
      <trkpt lat="42.87533" lon="0.14962">
        <ele>2139</ele>
        <time>2022-07-25T11:06:11Z</time>
      </trkpt>
      <trkpt lat="42.87522" lon="0.15028">
        <ele>2143</ele>
        <time>2022-07-25T11:06:11Z</time>
      </trkpt>
      <trkpt lat="42.8752" lon="0.15088">
        <ele>2146</ele>
        <time>2022-07-25T11:06:11Z</time>
      </trkpt>
      <trkpt lat="42.87521" lon="0.15108">
        <ele>2147</ele>
        <time>2022-07-25T11:06:11Z</time>
      </trkpt>
      <trkpt lat="42.87515" lon="0.15151">
        <ele>2149</ele>
        <time>2022-07-25T11:06:11Z</time>
      </trkpt>
      <trkpt lat="42.8752" lon="0.15185">
        <ele>2151</ele>
        <time>2022-07-25T11:06:11Z</time>
      </trkpt>
      <trkpt lat="42.87518" lon="0.15192">
        <ele>2151</ele>
        <time>2022-07-25T11:06:11Z</time>
      </trkpt>
      <trkpt lat="42.87554" lon="0.15199">
        <ele>2151</ele>
        <time>2022-07-25T11:06:11Z</time>
      </trkpt>
      <trkpt lat="42.87583" lon="0.15213">
        <ele>2152</ele>
        <time>2022-07-25T11:06:11Z</time>
      </trkpt>
      <trkpt lat="42.87598" lon="0.15229">
        <ele>2154</ele>
        <time>2022-07-25T11:06:11Z</time>
      </trkpt>
      <trkpt lat="42.87601" lon="0.1526">
        <ele>2156</ele>
        <time>2022-07-25T11:06:11Z</time>
      </trkpt>
      <trkpt lat="42.87596" lon="0.15277">
        <ele>2157</ele>
        <time>2022-07-25T11:06:11Z</time>
      </trkpt>
      <trkpt lat="42.87589" lon="0.15313">
        <ele>2158</ele>
        <time>2022-07-25T11:06:11Z</time>
      </trkpt>
      <trkpt lat="42.876" lon="0.15349">
        <ele>2162</ele>
        <time>2022-07-25T11:06:11Z</time>
      </trkpt>
      <trkpt lat="42.87608" lon="0.15368">
        <ele>2165</ele>
        <time>2022-07-25T11:06:11Z</time>
      </trkpt>
      <trkpt lat="42.87613" lon="0.15374">
        <ele>2166</ele>
        <time>2022-07-25T11:06:11Z</time>
      </trkpt>
      <trkpt lat="42.87615" lon="0.15382">
        <ele>2167</ele>
        <time>2022-07-25T11:06:11Z</time>
      </trkpt>
      <trkpt lat="42.8762" lon="0.1543">
        <ele>2172</ele>
        <time>2022-07-25T11:06:11Z</time>
      </trkpt>
      <trkpt lat="42.87617" lon="0.15438">
        <ele>2173</ele>
        <time>2022-07-25T11:06:11Z</time>
      </trkpt>
      <trkpt lat="42.87614" lon="0.15467">
        <ele>2176</ele>
        <time>2022-07-25T11:06:11Z</time>
      </trkpt>
      <trkpt lat="42.87616" lon="0.15485">
        <ele>2178</ele>
        <time>2022-07-25T11:06:11Z</time>
      </trkpt>
      <trkpt lat="42.87613" lon="0.15491">
        <ele>2179</ele>
        <time>2022-07-25T11:06:11Z</time>
      </trkpt>
      <trkpt lat="42.87614" lon="0.15492">
        <ele>2179</ele>
        <time>2022-07-25T11:06:11Z</time>
      </trkpt>
      <trkpt lat="42.87616" lon="0.15526">
        <ele>2183</ele>
        <time>2022-07-25T11:06:11Z</time>
      </trkpt>
      <trkpt lat="42.87628" lon="0.15561">
        <ele>2188</ele>
        <time>2022-07-25T11:06:11Z</time>
      </trkpt>
      <trkpt lat="42.87647" lon="0.15578">
        <ele>2190</ele>
        <time>2022-07-25T11:06:11Z</time>
      </trkpt>
      <trkpt lat="42.8766" lon="0.15611">
        <ele>2194</ele>
        <time>2022-07-25T11:06:11Z</time>
      </trkpt>
      <trkpt lat="42.87682" lon="0.15638">
        <ele>2196</ele>
        <time>2022-07-25T11:06:11Z</time>
      </trkpt>
      <trkpt lat="42.87697" lon="0.15675">
        <ele>2198</ele>
        <time>2022-07-25T11:06:11Z</time>
      </trkpt>
      <trkpt lat="42.87701" lon="0.15715">
        <ele>2201</ele>
        <time>2022-07-25T11:06:11Z</time>
      </trkpt>
      <trkpt lat="42.87711" lon="0.15754">
        <ele>2203</ele>
        <time>2022-07-25T11:06:11Z</time>
      </trkpt>
      <trkpt lat="42.87725" lon="0.1579">
        <ele>2204</ele>
        <time>2022-07-25T11:06:11Z</time>
      </trkpt>
      <trkpt lat="42.87744" lon="0.15824">
        <ele>2203</ele>
        <time>2022-07-25T11:06:11Z</time>
      </trkpt>
      <trkpt lat="42.87744" lon="0.15823">
        <ele>2203</ele>
        <time>2022-07-25T11:06:11Z</time>
      </trkpt>
      <trkpt lat="42.87749" lon="0.15892">
        <ele>2207</ele>
        <time>2022-07-25T11:06:11Z</time>
      </trkpt>
      <trkpt lat="42.87758" lon="0.15908">
        <ele>2206</ele>
        <time>2022-07-25T11:06:11Z</time>
      </trkpt>
      <trkpt lat="42.87767" lon="0.15938">
        <ele>2210</ele>
        <time>2022-07-25T11:06:11Z</time>
      </trkpt>
      <trkpt lat="42.87772" lon="0.15969">
        <ele>2214</ele>
        <time>2022-07-25T11:06:11Z</time>
      </trkpt>
      <trkpt lat="42.8777" lon="0.15998">
        <ele>2217</ele>
        <time>2022-07-25T11:06:11Z</time>
      </trkpt>
      <trkpt lat="42.87771" lon="0.16062">
        <ele>2224</ele>
        <time>2022-07-25T11:06:11Z</time>
      </trkpt>
      <trkpt lat="42.87774" lon="0.16072">
        <ele>2226</ele>
        <time>2022-07-25T11:06:11Z</time>
      </trkpt>
      <trkpt lat="42.8778" lon="0.16083">
        <ele>2227</ele>
        <time>2022-07-25T11:06:11Z</time>
      </trkpt>
      <trkpt lat="42.87785" lon="0.16106">
        <ele>2230</ele>
        <time>2022-07-25T11:06:11Z</time>
      </trkpt>
      <trkpt lat="42.87777" lon="0.16121">
        <ele>2231</ele>
        <time>2022-07-25T11:06:11Z</time>
      </trkpt>
      <trkpt lat="42.87764" lon="0.16165">
        <ele>2234</ele>
        <time>2022-07-25T11:06:11Z</time>
      </trkpt>
      <trkpt lat="42.87755" lon="0.16209">
        <ele>2238</ele>
        <time>2022-07-25T11:06:11Z</time>
      </trkpt>
      <trkpt lat="42.87746" lon="0.16216">
        <ele>2239</ele>
        <time>2022-07-25T11:06:11Z</time>
      </trkpt>
      <trkpt lat="42.87738" lon="0.16235">
        <ele>2242</ele>
        <time>2022-07-25T11:06:11Z</time>
      </trkpt>
      <trkpt lat="42.87731" lon="0.1627">
        <ele>2246</ele>
        <time>2022-07-25T11:06:11Z</time>
      </trkpt>
      <trkpt lat="42.8773" lon="0.16285">
        <ele>2247</ele>
        <time>2022-07-25T11:06:11Z</time>
      </trkpt>
      <trkpt lat="42.8772" lon="0.16314">
        <ele>2250</ele>
        <time>2022-07-25T11:06:11Z</time>
      </trkpt>
      <trkpt lat="42.87728" lon="0.16391">
        <ele>2260</ele>
        <time>2022-07-25T11:06:11Z</time>
      </trkpt>
      <trkpt lat="42.87727" lon="0.16424">
        <ele>2264</ele>
        <time>2022-07-25T11:06:11Z</time>
      </trkpt>
      <trkpt lat="42.87722" lon="0.16445">
        <ele>2266</ele>
        <time>2022-07-25T11:06:11Z</time>
      </trkpt>
      <trkpt lat="42.87712" lon="0.16475">
        <ele>2269</ele>
        <time>2022-07-25T11:06:11Z</time>
      </trkpt>
      <trkpt lat="42.87701" lon="0.16492">
        <ele>2271</ele>
        <time>2022-07-25T11:06:11Z</time>
      </trkpt>
      <trkpt lat="42.87691" lon="0.16515">
        <ele>2273</ele>
        <time>2022-07-25T11:06:11Z</time>
      </trkpt>
      <trkpt lat="42.87678" lon="0.16556">
        <ele>2277</ele>
        <time>2022-07-25T11:06:11Z</time>
      </trkpt>
      <trkpt lat="42.87691" lon="0.16515">
        <ele>2273</ele>
        <time>2022-07-25T11:06:11Z</time>
      </trkpt>
      <trkpt lat="42.87701" lon="0.16492">
        <ele>2271</ele>
        <time>2022-07-25T11:06:11Z</time>
      </trkpt>
      <trkpt lat="42.87712" lon="0.16475">
        <ele>2269</ele>
        <time>2022-07-25T11:06:11Z</time>
      </trkpt>
      <trkpt lat="42.87722" lon="0.16445">
        <ele>2266</ele>
        <time>2022-07-25T11:06:11Z</time>
      </trkpt>
      <trkpt lat="42.87727" lon="0.16424">
        <ele>2264</ele>
        <time>2022-07-25T11:06:11Z</time>
      </trkpt>
      <trkpt lat="42.87728" lon="0.16391">
        <ele>2260</ele>
        <time>2022-07-25T11:06:11Z</time>
      </trkpt>
      <trkpt lat="42.8772" lon="0.16314">
        <ele>2250</ele>
        <time>2022-07-25T11:06:11Z</time>
      </trkpt>
      <trkpt lat="42.87728" lon="0.16391">
        <ele>2260</ele>
        <time>2022-07-25T11:06:11Z</time>
      </trkpt>
      <trkpt lat="42.87727" lon="0.16424">
        <ele>2264</ele>
        <time>2022-07-25T11:06:11Z</time>
      </trkpt>
      <trkpt lat="42.87722" lon="0.16445">
        <ele>2266</ele>
        <time>2022-07-25T11:06:11Z</time>
      </trkpt>
      <trkpt lat="42.87712" lon="0.16475">
        <ele>2269</ele>
        <time>2022-07-25T11:06:11Z</time>
      </trkpt>
      <trkpt lat="42.87701" lon="0.16492">
        <ele>2271</ele>
        <time>2022-07-25T11:06:11Z</time>
      </trkpt>
      <trkpt lat="42.87691" lon="0.16515">
        <ele>2273</ele>
        <time>2022-07-25T11:06:11Z</time>
      </trkpt>
      <trkpt lat="42.87674" lon="0.16572">
        <ele>2279</ele>
        <time>2022-07-25T11:06:11Z</time>
      </trkpt>
      <trkpt lat="42.87672" lon="0.166">
        <ele>2283</ele>
        <time>2022-07-25T11:06:11Z</time>
      </trkpt>
      <trkpt lat="42.87666" lon="0.16621">
        <ele>2287</ele>
        <time>2022-07-25T11:06:11Z</time>
      </trkpt>
      <trkpt lat="42.87654" lon="0.16648">
        <ele>2293</ele>
        <time>2022-07-25T11:06:11Z</time>
      </trkpt>
      <trkpt lat="42.87641" lon="0.16672">
        <ele>2299</ele>
        <time>2022-07-25T11:06:11Z</time>
      </trkpt>
      <trkpt lat="42.87607" lon="0.16765">
        <ele>2319</ele>
        <time>2022-07-25T11:06:11Z</time>
      </trkpt>
      <trkpt lat="42.87598" lon="0.16784">
        <ele>2323</ele>
        <time>2022-07-25T11:06:11Z</time>
      </trkpt>
      <trkpt lat="42.87593" lon="0.16804">
        <ele>2328</ele>
        <time>2022-07-25T11:06:11Z</time>
      </trkpt>
      <trkpt lat="42.87591" lon="0.16843">
        <ele>2335</ele>
        <time>2022-07-25T11:06:11Z</time>
      </trkpt>
      <trkpt lat="42.87582" lon="0.16854">
        <ele>2340</ele>
        <time>2022-07-25T11:06:11Z</time>
      </trkpt>
      <trkpt lat="42.87577" lon="0.16857">
        <ele>2343</ele>
        <time>2022-07-25T11:06:11Z</time>
      </trkpt>
      <trkpt lat="42.87567" lon="0.16857">
        <ele>2346</ele>
        <time>2022-07-25T11:06:11Z</time>
      </trkpt>
      <trkpt lat="42.87562" lon="0.16866">
        <ele>2349</ele>
        <time>2022-07-25T11:06:11Z</time>
      </trkpt>
      <trkpt lat="42.87561" lon="0.16882">
        <ele>2352</ele>
        <time>2022-07-25T11:06:11Z</time>
      </trkpt>
      <trkpt lat="42.87558" lon="0.16896">
        <ele>2355</ele>
        <time>2022-07-25T11:06:11Z</time>
      </trkpt>
      <trkpt lat="42.87553" lon="0.16906">
        <ele>2358</ele>
        <time>2022-07-25T11:06:11Z</time>
      </trkpt>
      <trkpt lat="42.87546" lon="0.16935">
        <ele>2365</ele>
        <time>2022-07-25T11:06:11Z</time>
      </trkpt>
      <trkpt lat="42.87547" lon="0.16952">
        <ele>2368</ele>
        <time>2022-07-25T11:06:11Z</time>
      </trkpt>
      <trkpt lat="42.87539" lon="0.16958">
        <ele>2371</ele>
        <time>2022-07-25T11:06:11Z</time>
      </trkpt>
      <trkpt lat="42.87532" lon="0.16985">
        <ele>2376</ele>
        <time>2022-07-25T11:06:11Z</time>
      </trkpt>
      <trkpt lat="42.87525" lon="0.16995">
        <ele>2379</ele>
        <time>2022-07-25T11:06:11Z</time>
      </trkpt>
      <trkpt lat="42.87521" lon="0.16997">
        <ele>2380</ele>
        <time>2022-07-25T11:06:11Z</time>
      </trkpt>
      <trkpt lat="42.87511" lon="0.17028">
        <ele>2385</ele>
        <time>2022-07-25T11:06:11Z</time>
      </trkpt>
      <trkpt lat="42.87508" lon="0.1703">
        <ele>2386</ele>
        <time>2022-07-25T11:06:11Z</time>
      </trkpt>
      <trkpt lat="42.875" lon="0.17065">
        <ele>2395</ele>
        <time>2022-07-25T11:06:11Z</time>
      </trkpt>
      <trkpt lat="42.87492" lon="0.17083">
        <ele>2402</ele>
        <time>2022-07-25T11:06:11Z</time>
      </trkpt>
      <trkpt lat="42.87487" lon="0.17083">
        <ele>2405</ele>
        <time>2022-07-25T11:06:11Z</time>
      </trkpt>
      <trkpt lat="42.87488" lon="0.17093">
        <ele>2407</ele>
        <time>2022-07-25T11:06:11Z</time>
      </trkpt>
      <trkpt lat="42.87483" lon="0.17101">
        <ele>2411</ele>
        <time>2022-07-25T11:06:11Z</time>
      </trkpt>
      <trkpt lat="42.87477" lon="0.17102">
        <ele>2414</ele>
        <time>2022-07-25T11:06:11Z</time>
      </trkpt>
      <trkpt lat="42.87479" lon="0.17114">
        <ele>2416</ele>
        <time>2022-07-25T11:06:11Z</time>
      </trkpt>
      <trkpt lat="42.87477" lon="0.17115">
        <ele>2417</ele>
        <time>2022-07-25T11:06:11Z</time>
      </trkpt>
      <trkpt lat="42.87477" lon="0.17122">
        <ele>2418</ele>
        <time>2022-07-25T11:06:11Z</time>
      </trkpt>
      <trkpt lat="42.87459" lon="0.1712">
        <ele>2427</ele>
        <time>2022-07-25T11:06:11Z</time>
      </trkpt>
      <trkpt lat="42.87458" lon="0.17129">
        <ele>2429</ele>
        <time>2022-07-25T11:06:11Z</time>
      </trkpt>
      <trkpt lat="42.87454" lon="0.17131">
        <ele>2432</ele>
        <time>2022-07-25T11:06:11Z</time>
      </trkpt>
      <trkpt lat="42.87457" lon="0.17139">
        <ele>2432</ele>
        <time>2022-07-25T11:06:11Z</time>
      </trkpt>
      <trkpt lat="42.87438" lon="0.17144">
        <ele>2442</ele>
        <time>2022-07-25T11:06:11Z</time>
      </trkpt>
      <trkpt lat="42.87436" lon="0.17149">
        <ele>2444</ele>
        <time>2022-07-25T11:06:11Z</time>
      </trkpt>
      <trkpt lat="42.87439" lon="0.17155">
        <ele>2444</ele>
        <time>2022-07-25T11:06:11Z</time>
      </trkpt>
      <trkpt lat="42.8744" lon="0.17162">
        <ele>2445</ele>
        <time>2022-07-25T11:06:11Z</time>
      </trkpt>
      <trkpt lat="42.87435" lon="0.17168">
        <ele>2448</ele>
        <time>2022-07-25T11:06:11Z</time>
      </trkpt>
      <trkpt lat="42.87437" lon="0.17175">
        <ele>2449</ele>
        <time>2022-07-25T11:06:11Z</time>
      </trkpt>
      <trkpt lat="42.87435" lon="0.17175">
        <ele>2449</ele>
        <time>2022-07-25T11:06:11Z</time>
      </trkpt>
      <trkpt lat="42.87435" lon="0.17176">
        <ele>2449</ele>
        <time>2022-07-25T11:06:11Z</time>
      </trkpt>
      <trkpt lat="42.87436" lon="0.1718">
        <ele>2450</ele>
        <time>2022-07-25T11:06:11Z</time>
      </trkpt>
      <trkpt lat="42.8743" lon="0.17192">
        <ele>2454</ele>
        <time>2022-07-25T11:06:11Z</time>
      </trkpt>
      <trkpt lat="42.8742" lon="0.17204">
        <ele>2456</ele>
        <time>2022-07-25T11:06:11Z</time>
      </trkpt>
      <trkpt lat="42.87396" lon="0.17203">
        <ele>2455</ele>
        <time>2022-07-25T11:06:11Z</time>
      </trkpt>
      <trkpt lat="42.87384" lon="0.1721">
        <ele>2455</ele>
        <time>2022-07-25T11:06:11Z</time>
      </trkpt>
      <trkpt lat="42.87374" lon="0.17212">
        <ele>2454</ele>
        <time>2022-07-25T11:06:11Z</time>
      </trkpt>
      <trkpt lat="42.87361" lon="0.17211">
        <ele>2453</ele>
        <time>2022-07-25T11:06:11Z</time>
      </trkpt>
      <trkpt lat="42.87355" lon="0.17218">
        <ele>2452</ele>
        <time>2022-07-25T11:06:11Z</time>
      </trkpt>
      <trkpt lat="42.87348" lon="0.17245">
        <ele>2446</ele>
        <time>2022-07-25T11:06:11Z</time>
      </trkpt>
      <trkpt lat="42.87348" lon="0.17258">
        <ele>2442</ele>
        <time>2022-07-25T11:06:11Z</time>
      </trkpt>
      <trkpt lat="42.87353" lon="0.1728">
        <ele>2438</ele>
        <time>2022-07-25T11:06:11Z</time>
      </trkpt>
      <trkpt lat="42.87362" lon="0.17297">
        <ele>2437</ele>
        <time>2022-07-25T11:06:11Z</time>
      </trkpt>
      <trkpt lat="42.87367" lon="0.17298">
        <ele>2438</ele>
        <time>2022-07-25T11:06:11Z</time>
      </trkpt>
      <trkpt lat="42.87374" lon="0.17313">
        <ele>2437</ele>
        <time>2022-07-25T11:06:11Z</time>
      </trkpt>
      <trkpt lat="42.87382" lon="0.17345">
        <ele>2433</ele>
        <time>2022-07-25T11:06:11Z</time>
      </trkpt>
      <trkpt lat="42.8739" lon="0.17361">
        <ele>2432</ele>
        <time>2022-07-25T11:06:11Z</time>
      </trkpt>
      <trkpt lat="42.87394" lon="0.17373">
        <ele>2431</ele>
        <time>2022-07-25T11:06:11Z</time>
      </trkpt>
      <trkpt lat="42.87396" lon="0.17454">
        <ele>2412</ele>
        <time>2022-07-25T11:06:11Z</time>
      </trkpt>
      <trkpt lat="42.87402" lon="0.17491">
        <ele>2406</ele>
        <time>2022-07-25T11:06:11Z</time>
      </trkpt>
      <trkpt lat="42.87416" lon="0.17527">
        <ele>2405</ele>
        <time>2022-07-25T11:06:11Z</time>
      </trkpt>
      <trkpt lat="42.87414" lon="0.17542">
        <ele>2402</ele>
        <time>2022-07-25T11:06:11Z</time>
      </trkpt>
      <trkpt lat="42.87403" lon="0.1757">
        <ele>2392</ele>
        <time>2022-07-25T11:06:11Z</time>
      </trkpt>
      <trkpt lat="42.87406" lon="0.17588">
        <ele>2390</ele>
        <time>2022-07-25T11:06:11Z</time>
      </trkpt>
      <trkpt lat="42.87407" lon="0.1762">
        <ele>2386</ele>
        <time>2022-07-25T11:06:11Z</time>
      </trkpt>
      <trkpt lat="42.87402" lon="0.17647">
        <ele>2380</ele>
        <time>2022-07-25T11:06:11Z</time>
      </trkpt>
      <trkpt lat="42.874" lon="0.1765">
        <ele>2379</ele>
        <time>2022-07-25T11:06:11Z</time>
      </trkpt>
      <trkpt lat="42.87374" lon="0.17689">
        <ele>2367</ele>
        <time>2022-07-25T11:06:11Z</time>
      </trkpt>
      <trkpt lat="42.87339" lon="0.17755">
        <ele>2352</ele>
        <time>2022-07-25T11:06:11Z</time>
      </trkpt>
      <trkpt lat="42.8729" lon="0.17825">
        <ele>2331</ele>
        <time>2022-07-25T11:06:11Z</time>
      </trkpt>
      <trkpt lat="42.87274" lon="0.17859">
        <ele>2327</ele>
        <time>2022-07-25T11:06:11Z</time>
      </trkpt>
      <trkpt lat="42.87261" lon="0.17868">
        <ele>2323</ele>
        <time>2022-07-25T11:06:11Z</time>
      </trkpt>
      <trkpt lat="42.87246" lon="0.17888">
        <ele>2319</ele>
        <time>2022-07-25T11:06:11Z</time>
      </trkpt>
      <trkpt lat="42.87233" lon="0.179">
        <ele>2316</ele>
        <time>2022-07-25T11:06:11Z</time>
      </trkpt>
      <trkpt lat="42.87213" lon="0.17929">
        <ele>2312</ele>
        <time>2022-07-25T11:06:11Z</time>
      </trkpt>
      <trkpt lat="42.87213" lon="0.17928">
        <ele>2312</ele>
        <time>2022-07-25T11:06:11Z</time>
      </trkpt>
      <trkpt lat="42.8721" lon="0.17934">
        <ele>2312</ele>
        <time>2022-07-25T11:06:11Z</time>
      </trkpt>
      <trkpt lat="42.87209" lon="0.17982">
        <ele>2316</ele>
        <time>2022-07-25T11:06:11Z</time>
      </trkpt>
      <trkpt lat="42.87214" lon="0.17989">
        <ele>2318</ele>
        <time>2022-07-25T11:06:11Z</time>
      </trkpt>
      <trkpt lat="42.87219" lon="0.18027">
        <ele>2319</ele>
        <time>2022-07-25T11:06:11Z</time>
      </trkpt>
      <trkpt lat="42.8722" lon="0.18051">
        <ele>2319</ele>
        <time>2022-07-25T11:06:11Z</time>
      </trkpt>
      <trkpt lat="42.87227" lon="0.18101">
        <ele>2318</ele>
        <time>2022-07-25T11:06:11Z</time>
      </trkpt>
      <trkpt lat="42.87227" lon="0.18115">
        <ele>2317</ele>
        <time>2022-07-25T11:06:11Z</time>
      </trkpt>
      <trkpt lat="42.8722" lon="0.18127">
        <ele>2316</ele>
        <time>2022-07-25T11:06:11Z</time>
      </trkpt>
      <trkpt lat="42.87216" lon="0.18142">
        <ele>2314</ele>
        <time>2022-07-25T11:06:11Z</time>
      </trkpt>
      <trkpt lat="42.87217" lon="0.1815">
        <ele>2314</ele>
        <time>2022-07-25T11:06:11Z</time>
      </trkpt>
      <trkpt lat="42.87222" lon="0.18159">
        <ele>2314</ele>
        <time>2022-07-25T11:06:11Z</time>
      </trkpt>
      <trkpt lat="42.87236" lon="0.18171">
        <ele>2315</ele>
        <time>2022-07-25T11:06:11Z</time>
      </trkpt>
      <trkpt lat="42.87237" lon="0.1818">
        <ele>2315</ele>
        <time>2022-07-25T11:06:11Z</time>
      </trkpt>
      <trkpt lat="42.87235" lon="0.182">
        <ele>2314</ele>
        <time>2022-07-25T11:06:11Z</time>
      </trkpt>
      <trkpt lat="42.87229" lon="0.1822">
        <ele>2312</ele>
        <time>2022-07-25T11:06:11Z</time>
      </trkpt>
      <trkpt lat="42.87191" lon="0.18279">
        <ele>2304</ele>
        <time>2022-07-25T11:06:11Z</time>
      </trkpt>
      <trkpt lat="42.87178" lon="0.18334">
        <ele>2302</ele>
        <time>2022-07-25T11:06:11Z</time>
      </trkpt>
      <trkpt lat="42.87179" lon="0.1835">
        <ele>2303</ele>
        <time>2022-07-25T11:06:11Z</time>
      </trkpt>
      <trkpt lat="42.87175" lon="0.18397">
        <ele>2302</ele>
        <time>2022-07-25T11:06:11Z</time>
      </trkpt>
      <trkpt lat="42.87162" lon="0.18439">
        <ele>2301</ele>
        <time>2022-07-25T11:06:11Z</time>
      </trkpt>
      <trkpt lat="42.87153" lon="0.18487">
        <ele>2302</ele>
        <time>2022-07-25T11:06:11Z</time>
      </trkpt>
      <trkpt lat="42.87147" lon="0.18505">
        <ele>2302</ele>
        <time>2022-07-25T11:06:11Z</time>
      </trkpt>
      <trkpt lat="42.87143" lon="0.18509">
        <ele>2302</ele>
        <time>2022-07-25T11:06:11Z</time>
      </trkpt>
      <trkpt lat="42.87149" lon="0.18541">
        <ele>2304</ele>
        <time>2022-07-25T11:06:11Z</time>
      </trkpt>
      <trkpt lat="42.87142" lon="0.18572">
        <ele>2305</ele>
        <time>2022-07-25T11:06:11Z</time>
      </trkpt>
      <trkpt lat="42.87129" lon="0.18598">
        <ele>2304</ele>
        <time>2022-07-25T11:06:11Z</time>
      </trkpt>
      <trkpt lat="42.8711" lon="0.1863">
        <ele>2304</ele>
        <time>2022-07-25T11:06:11Z</time>
      </trkpt>
      <trkpt lat="42.87108" lon="0.18638">
        <ele>2304</ele>
        <time>2022-07-25T11:06:11Z</time>
      </trkpt>
      <trkpt lat="42.87102" lon="0.18625">
        <ele>2303</ele>
        <time>2022-07-25T11:06:11Z</time>
      </trkpt>
      <trkpt lat="42.87078" lon="0.18607">
        <ele>2297</ele>
        <time>2022-07-25T11:06:11Z</time>
      </trkpt>
      <trkpt lat="42.87057" lon="0.18583">
        <ele>2291</ele>
        <time>2022-07-25T11:06:11Z</time>
      </trkpt>
      <trkpt lat="42.87035" lon="0.18567">
        <ele>2286</ele>
        <time>2022-07-25T11:06:11Z</time>
      </trkpt>
      <trkpt lat="42.87027" lon="0.18563">
        <ele>2283</ele>
        <time>2022-07-25T11:06:11Z</time>
      </trkpt>
      <trkpt lat="42.87006" lon="0.18574">
        <ele>2279</ele>
        <time>2022-07-25T11:06:11Z</time>
      </trkpt>
      <trkpt lat="42.87002" lon="0.18578">
        <ele>2278</ele>
        <time>2022-07-25T11:06:11Z</time>
      </trkpt>
      <trkpt lat="42.86985" lon="0.1858">
        <ele>2275</ele>
        <time>2022-07-25T11:06:11Z</time>
      </trkpt>
      <trkpt lat="42.86945" lon="0.18598">
        <ele>2266</ele>
        <time>2022-07-25T11:06:11Z</time>
      </trkpt>
      <trkpt lat="42.86936" lon="0.18604">
        <ele>2264</ele>
        <time>2022-07-25T11:06:11Z</time>
      </trkpt>
      <trkpt lat="42.86932" lon="0.18604">
        <ele>2263</ele>
        <time>2022-07-25T11:06:11Z</time>
      </trkpt>
      <trkpt lat="42.86913" lon="0.18622">
        <ele>2259</ele>
        <time>2022-07-25T11:06:11Z</time>
      </trkpt>
      <trkpt lat="42.86898" lon="0.18632">
        <ele>2256</ele>
        <time>2022-07-25T11:06:11Z</time>
      </trkpt>
      <trkpt lat="42.8689" lon="0.18641">
        <ele>2255</ele>
        <time>2022-07-25T11:06:11Z</time>
      </trkpt>
      <trkpt lat="42.86879" lon="0.18646">
        <ele>2253</ele>
        <time>2022-07-25T11:06:11Z</time>
      </trkpt>
      <trkpt lat="42.86869" lon="0.18647">
        <ele>2251</ele>
        <time>2022-07-25T11:06:11Z</time>
      </trkpt>
      <trkpt lat="42.86828" lon="0.18658">
        <ele>2243</ele>
        <time>2022-07-25T11:06:11Z</time>
      </trkpt>
      <trkpt lat="42.86819" lon="0.18659">
        <ele>2241</ele>
        <time>2022-07-25T11:06:11Z</time>
      </trkpt>
      <trkpt lat="42.86805" lon="0.18657">
        <ele>2238</ele>
        <time>2022-07-25T11:06:11Z</time>
      </trkpt>
      <trkpt lat="42.86797" lon="0.18659">
        <ele>2237</ele>
        <time>2022-07-25T11:06:11Z</time>
      </trkpt>
      <trkpt lat="42.86791" lon="0.18664">
        <ele>2235</ele>
        <time>2022-07-25T11:06:11Z</time>
      </trkpt>
      <trkpt lat="42.8679" lon="0.18662">
        <ele>2235</ele>
        <time>2022-07-25T11:06:11Z</time>
      </trkpt>
      <trkpt lat="42.86778" lon="0.18672">
        <ele>2232</ele>
        <time>2022-07-25T11:06:11Z</time>
      </trkpt>
      <trkpt lat="42.86774" lon="0.18672">
        <ele>2232</ele>
        <time>2022-07-25T11:06:11Z</time>
      </trkpt>
      <trkpt lat="42.86746" lon="0.18692">
        <ele>2226</ele>
        <time>2022-07-25T11:06:11Z</time>
      </trkpt>
      <trkpt lat="42.86737" lon="0.18696">
        <ele>2225</ele>
        <time>2022-07-25T11:06:11Z</time>
      </trkpt>
      <trkpt lat="42.86734" lon="0.18701">
        <ele>2224</ele>
        <time>2022-07-25T11:06:11Z</time>
      </trkpt>
      <trkpt lat="42.86725" lon="0.18704">
        <ele>2222</ele>
        <time>2022-07-25T11:06:11Z</time>
      </trkpt>
      <trkpt lat="42.86721" lon="0.18708">
        <ele>2222</ele>
        <time>2022-07-25T11:06:11Z</time>
      </trkpt>
      <trkpt lat="42.86712" lon="0.18712">
        <ele>2220</ele>
        <time>2022-07-25T11:06:11Z</time>
      </trkpt>
      <trkpt lat="42.86698" lon="0.18715">
        <ele>2217</ele>
        <time>2022-07-25T11:06:11Z</time>
      </trkpt>
      <trkpt lat="42.86669" lon="0.18728">
        <ele>2211</ele>
        <time>2022-07-25T11:06:11Z</time>
      </trkpt>
      <trkpt lat="42.86665" lon="0.18726">
        <ele>2211</ele>
        <time>2022-07-25T11:06:11Z</time>
      </trkpt>
      <trkpt lat="42.86641" lon="0.18722">
        <ele>2207</ele>
        <time>2022-07-25T11:06:11Z</time>
      </trkpt>
      <trkpt lat="42.86633" lon="0.18725">
        <ele>2206</ele>
        <time>2022-07-25T11:06:11Z</time>
      </trkpt>
      <trkpt lat="42.86626" lon="0.18722">
        <ele>2204</ele>
        <time>2022-07-25T11:06:11Z</time>
      </trkpt>
      <trkpt lat="42.86615" lon="0.1872">
        <ele>2203</ele>
        <time>2022-07-25T11:06:11Z</time>
      </trkpt>
      <trkpt lat="42.86607" lon="0.18723">
        <ele>2201</ele>
        <time>2022-07-25T11:06:11Z</time>
      </trkpt>
      <trkpt lat="42.86597" lon="0.18724">
        <ele>2200</ele>
        <time>2022-07-25T11:06:11Z</time>
      </trkpt>
      <trkpt lat="42.86588" lon="0.18728">
        <ele>2198</ele>
        <time>2022-07-25T11:06:11Z</time>
      </trkpt>
      <trkpt lat="42.8658" lon="0.18725">
        <ele>2196</ele>
        <time>2022-07-25T11:06:11Z</time>
      </trkpt>
      <trkpt lat="42.86568" lon="0.18725">
        <ele>2194</ele>
        <time>2022-07-25T11:06:11Z</time>
      </trkpt>
      <trkpt lat="42.86563" lon="0.18722">
        <ele>2193</ele>
        <time>2022-07-25T11:06:11Z</time>
      </trkpt>
      <trkpt lat="42.86555" lon="0.18723">
        <ele>2191</ele>
        <time>2022-07-25T11:06:11Z</time>
      </trkpt>
      <trkpt lat="42.86547" lon="0.1872">
        <ele>2189</ele>
        <time>2022-07-25T11:06:11Z</time>
      </trkpt>
      <trkpt lat="42.86542" lon="0.1872">
        <ele>2188</ele>
        <time>2022-07-25T11:06:11Z</time>
      </trkpt>
      <trkpt lat="42.86539" lon="0.18722">
        <ele>2188</ele>
        <time>2022-07-25T11:06:11Z</time>
      </trkpt>
      <trkpt lat="42.86536" lon="0.18721">
        <ele>2187</ele>
        <time>2022-07-25T11:06:11Z</time>
      </trkpt>
      <trkpt lat="42.8653" lon="0.18712">
        <ele>2186</ele>
        <time>2022-07-25T11:06:11Z</time>
      </trkpt>
      <trkpt lat="42.86524" lon="0.18709">
        <ele>2185</ele>
        <time>2022-07-25T11:06:11Z</time>
      </trkpt>
      <trkpt lat="42.86516" lon="0.18701">
        <ele>2183</ele>
        <time>2022-07-25T11:06:11Z</time>
      </trkpt>
      <trkpt lat="42.86507" lon="0.18688">
        <ele>2181</ele>
        <time>2022-07-25T11:06:11Z</time>
      </trkpt>
      <trkpt lat="42.86499" lon="0.1869">
        <ele>2179</ele>
        <time>2022-07-25T11:06:11Z</time>
      </trkpt>
      <trkpt lat="42.86496" lon="0.18693">
        <ele>2178</ele>
        <time>2022-07-25T11:06:11Z</time>
      </trkpt>
      <trkpt lat="42.86487" lon="0.18692">
        <ele>2176</ele>
        <time>2022-07-25T11:06:11Z</time>
      </trkpt>
      <trkpt lat="42.86486" lon="0.18689">
        <ele>2176</ele>
        <time>2022-07-25T11:06:11Z</time>
      </trkpt>
      <trkpt lat="42.86482" lon="0.18691">
        <ele>2175</ele>
        <time>2022-07-25T11:06:11Z</time>
      </trkpt>
      <trkpt lat="42.86481" lon="0.1869">
        <ele>2175</ele>
        <time>2022-07-25T11:06:11Z</time>
      </trkpt>
      <trkpt lat="42.86473" lon="0.18695">
        <ele>2173</ele>
        <time>2022-07-25T11:06:11Z</time>
      </trkpt>
      <trkpt lat="42.86467" lon="0.18696">
        <ele>2171</ele>
        <time>2022-07-25T11:06:11Z</time>
      </trkpt>
      <trkpt lat="42.86463" lon="0.18693">
        <ele>2170</ele>
        <time>2022-07-25T11:06:11Z</time>
      </trkpt>
      <trkpt lat="42.86452" lon="0.18699">
        <ele>2168</ele>
        <time>2022-07-25T11:06:11Z</time>
      </trkpt>
      <trkpt lat="42.86434" lon="0.18697">
        <ele>2164</ele>
        <time>2022-07-25T11:06:11Z</time>
      </trkpt>
      <trkpt lat="42.86427" lon="0.18691">
        <ele>2162</ele>
        <time>2022-07-25T11:06:11Z</time>
      </trkpt>
      <trkpt lat="42.86422" lon="0.18691">
        <ele>2160</ele>
        <time>2022-07-25T11:06:11Z</time>
      </trkpt>
      <trkpt lat="42.86418" lon="0.18694">
        <ele>2159</ele>
        <time>2022-07-25T11:06:11Z</time>
      </trkpt>
      <trkpt lat="42.86408" lon="0.18693">
        <ele>2157</ele>
        <time>2022-07-25T11:06:11Z</time>
      </trkpt>
      <trkpt lat="42.86399" lon="0.18695">
        <ele>2154</ele>
        <time>2022-07-25T11:06:11Z</time>
      </trkpt>
      <trkpt lat="42.86394" lon="0.18701">
        <ele>2153</ele>
        <time>2022-07-25T11:06:11Z</time>
      </trkpt>
      <trkpt lat="42.86385" lon="0.18695">
        <ele>2150</ele>
        <time>2022-07-25T11:06:11Z</time>
      </trkpt>
      <trkpt lat="42.8638" lon="0.18694">
        <ele>2149</ele>
        <time>2022-07-25T11:06:11Z</time>
      </trkpt>
      <trkpt lat="42.86364" lon="0.18705">
        <ele>2145</ele>
        <time>2022-07-25T11:06:11Z</time>
      </trkpt>
      <trkpt lat="42.8635" lon="0.18704">
        <ele>2141</ele>
        <time>2022-07-25T11:06:11Z</time>
      </trkpt>
      <trkpt lat="42.86334" lon="0.18715">
        <ele>2138</ele>
        <time>2022-07-25T11:06:11Z</time>
      </trkpt>
      <trkpt lat="42.86326" lon="0.18728">
        <ele>2137</ele>
        <time>2022-07-25T11:06:11Z</time>
      </trkpt>
      <trkpt lat="42.8632" lon="0.18732">
        <ele>2136</ele>
        <time>2022-07-25T11:06:11Z</time>
      </trkpt>
      <trkpt lat="42.86314" lon="0.18729">
        <ele>2135</ele>
        <time>2022-07-25T11:06:11Z</time>
      </trkpt>
      <trkpt lat="42.86289" lon="0.18733">
        <ele>2131</ele>
        <time>2022-07-25T11:06:11Z</time>
      </trkpt>
      <trkpt lat="42.86266" lon="0.18732">
        <ele>2127</ele>
        <time>2022-07-25T11:06:11Z</time>
      </trkpt>
      <trkpt lat="42.86254" lon="0.18729">
        <ele>2125</ele>
        <time>2022-07-25T11:06:11Z</time>
      </trkpt>
      <trkpt lat="42.86239" lon="0.18728">
        <ele>2123</ele>
        <time>2022-07-25T11:06:11Z</time>
      </trkpt>
      <trkpt lat="42.86226" lon="0.18731">
        <ele>2121</ele>
        <time>2022-07-25T11:06:11Z</time>
      </trkpt>
      <trkpt lat="42.8622" lon="0.18728">
        <ele>2120</ele>
        <time>2022-07-25T11:06:11Z</time>
      </trkpt>
      <trkpt lat="42.86184" lon="0.18724">
        <ele>2115</ele>
        <time>2022-07-25T11:06:11Z</time>
      </trkpt>
      <trkpt lat="42.86179" lon="0.18724">
        <ele>2114</ele>
        <time>2022-07-25T11:06:11Z</time>
      </trkpt>
      <trkpt lat="42.86159" lon="0.18725">
        <ele>2111</ele>
        <time>2022-07-25T11:06:11Z</time>
      </trkpt>
      <trkpt lat="42.86147" lon="0.18732">
        <ele>2109</ele>
        <time>2022-07-25T11:06:11Z</time>
      </trkpt>
      <trkpt lat="42.86143" lon="0.18732">
        <ele>2109</ele>
        <time>2022-07-25T11:06:11Z</time>
      </trkpt>
      <trkpt lat="42.86135" lon="0.18729">
        <ele>2108</ele>
        <time>2022-07-25T11:06:11Z</time>
      </trkpt>
      <trkpt lat="42.86132" lon="0.18726">
        <ele>2107</ele>
        <time>2022-07-25T11:06:11Z</time>
      </trkpt>
      <trkpt lat="42.86119" lon="0.18727">
        <ele>2105</ele>
        <time>2022-07-25T11:06:11Z</time>
      </trkpt>
      <trkpt lat="42.86112" lon="0.18723">
        <ele>2104</ele>
        <time>2022-07-25T11:06:11Z</time>
      </trkpt>
      <trkpt lat="42.86096" lon="0.18718">
        <ele>2102</ele>
        <time>2022-07-25T11:06:11Z</time>
      </trkpt>
      <trkpt lat="42.86091" lon="0.18719">
        <ele>2101</ele>
        <time>2022-07-25T11:06:11Z</time>
      </trkpt>
      <trkpt lat="42.86088" lon="0.18722">
        <ele>2100</ele>
        <time>2022-07-25T11:06:11Z</time>
      </trkpt>
      <trkpt lat="42.86081" lon="0.18721">
        <ele>2099</ele>
        <time>2022-07-25T11:06:11Z</time>
      </trkpt>
      <trkpt lat="42.86065" lon="0.1873">
        <ele>2095</ele>
        <time>2022-07-25T11:06:11Z</time>
      </trkpt>
      <trkpt lat="42.86061" lon="0.18729">
        <ele>2094</ele>
        <time>2022-07-25T11:06:11Z</time>
      </trkpt>
      <trkpt lat="42.86056" lon="0.18735">
        <ele>2093</ele>
        <time>2022-07-25T11:06:11Z</time>
      </trkpt>
      <trkpt lat="42.86055" lon="0.18741">
        <ele>2093</ele>
        <time>2022-07-25T11:06:11Z</time>
      </trkpt>
      <trkpt lat="42.86042" lon="0.18757">
        <ele>2089</ele>
        <time>2022-07-25T11:06:11Z</time>
      </trkpt>
      <trkpt lat="42.86031" lon="0.1876">
        <ele>2087</ele>
        <time>2022-07-25T11:06:11Z</time>
      </trkpt>
      <trkpt lat="42.86026" lon="0.18764">
        <ele>2086</ele>
        <time>2022-07-25T11:06:11Z</time>
      </trkpt>
      <trkpt lat="42.8602" lon="0.18763">
        <ele>2084</ele>
        <time>2022-07-25T11:06:11Z</time>
      </trkpt>
      <trkpt lat="42.86008" lon="0.18774">
        <ele>2082</ele>
        <time>2022-07-25T11:06:11Z</time>
      </trkpt>
      <trkpt lat="42.86004" lon="0.18774">
        <ele>2081</ele>
        <time>2022-07-25T11:06:11Z</time>
      </trkpt>
      <trkpt lat="42.86004" lon="0.18778">
        <ele>2081</ele>
        <time>2022-07-25T11:06:11Z</time>
      </trkpt>
      <trkpt lat="42.86001" lon="0.1878">
        <ele>2081</ele>
        <time>2022-07-25T11:06:11Z</time>
      </trkpt>
      <trkpt lat="42.85998" lon="0.18789">
        <ele>2080</ele>
        <time>2022-07-25T11:06:11Z</time>
      </trkpt>
      <trkpt lat="42.85995" lon="0.18792">
        <ele>2080</ele>
        <time>2022-07-25T11:06:11Z</time>
      </trkpt>
      <trkpt lat="42.85992" lon="0.1879">
        <ele>2080</ele>
        <time>2022-07-25T11:06:11Z</time>
      </trkpt>
      <trkpt lat="42.85988" lon="0.18791">
        <ele>2079</ele>
        <time>2022-07-25T11:06:11Z</time>
      </trkpt>
      <trkpt lat="42.85986" lon="0.1879">
        <ele>2079</ele>
        <time>2022-07-25T11:06:11Z</time>
      </trkpt>
      <trkpt lat="42.8598" lon="0.18809">
        <ele>2077</ele>
        <time>2022-07-25T11:06:11Z</time>
      </trkpt>
      <trkpt lat="42.85976" lon="0.18809">
        <ele>2077</ele>
        <time>2022-07-25T11:06:11Z</time>
      </trkpt>
      <trkpt lat="42.85971" lon="0.18815">
        <ele>2076</ele>
        <time>2022-07-25T11:06:11Z</time>
      </trkpt>
      <trkpt lat="42.85967" lon="0.18816">
        <ele>2075</ele>
        <time>2022-07-25T11:06:11Z</time>
      </trkpt>
      <trkpt lat="42.85958" lon="0.18837">
        <ele>2072</ele>
        <time>2022-07-25T11:06:11Z</time>
      </trkpt>
      <trkpt lat="42.85949" lon="0.18839">
        <ele>2071</ele>
        <time>2022-07-25T11:06:11Z</time>
      </trkpt>
      <trkpt lat="42.85947" lon="0.18843">
        <ele>2070</ele>
        <time>2022-07-25T11:06:11Z</time>
      </trkpt>
      <trkpt lat="42.85945" lon="0.18842">
        <ele>2070</ele>
        <time>2022-07-25T11:06:11Z</time>
      </trkpt>
      <trkpt lat="42.85938" lon="0.18852">
        <ele>2068</ele>
        <time>2022-07-25T11:06:11Z</time>
      </trkpt>
      <trkpt lat="42.85928" lon="0.18848">
        <ele>2067</ele>
        <time>2022-07-25T11:06:11Z</time>
      </trkpt>
      <trkpt lat="42.85925" lon="0.18849">
        <ele>2066</ele>
        <time>2022-07-25T11:06:11Z</time>
      </trkpt>
      <trkpt lat="42.85923" lon="0.18856">
        <ele>2065</ele>
        <time>2022-07-25T11:06:11Z</time>
      </trkpt>
      <trkpt lat="42.85924" lon="0.18859">
        <ele>2065</ele>
        <time>2022-07-25T11:06:11Z</time>
      </trkpt>
      <trkpt lat="42.8592" lon="0.18864">
        <ele>2064</ele>
        <time>2022-07-25T11:06:11Z</time>
      </trkpt>
      <trkpt lat="42.85916" lon="0.18866">
        <ele>2064</ele>
        <time>2022-07-25T11:06:11Z</time>
      </trkpt>
      <trkpt lat="42.8591" lon="0.18866">
        <ele>2063</ele>
        <time>2022-07-25T11:06:11Z</time>
      </trkpt>
      <trkpt lat="42.85907" lon="0.18879">
        <ele>2061</ele>
        <time>2022-07-25T11:06:11Z</time>
      </trkpt>
      <trkpt lat="42.85903" lon="0.18882">
        <ele>2060</ele>
        <time>2022-07-25T11:06:11Z</time>
      </trkpt>
      <trkpt lat="42.85899" lon="0.1889">
        <ele>2058</ele>
        <time>2022-07-25T11:06:11Z</time>
      </trkpt>
      <trkpt lat="42.85897" lon="0.18905">
        <ele>2055</ele>
        <time>2022-07-25T11:06:11Z</time>
      </trkpt>
      <trkpt lat="42.85891" lon="0.18911">
        <ele>2053</ele>
        <time>2022-07-25T11:06:11Z</time>
      </trkpt>
      <trkpt lat="42.85882" lon="0.18925">
        <ele>2050</ele>
        <time>2022-07-25T11:06:11Z</time>
      </trkpt>
      <trkpt lat="42.85879" lon="0.18932">
        <ele>2048</ele>
        <time>2022-07-25T11:06:11Z</time>
      </trkpt>
      <trkpt lat="42.8588" lon="0.18937">
        <ele>2048</ele>
        <time>2022-07-25T11:06:11Z</time>
      </trkpt>
      <trkpt lat="42.85873" lon="0.18954">
        <ele>2044</ele>
        <time>2022-07-25T11:06:11Z</time>
      </trkpt>
      <trkpt lat="42.8586" lon="0.18968">
        <ele>2039</ele>
        <time>2022-07-25T11:06:11Z</time>
      </trkpt>
      <trkpt lat="42.85849" lon="0.18975">
        <ele>2035</ele>
        <time>2022-07-25T11:06:11Z</time>
      </trkpt>
      <trkpt lat="42.85843" lon="0.18986">
        <ele>2033</ele>
        <time>2022-07-25T11:06:11Z</time>
      </trkpt>
      <trkpt lat="42.85841" lon="0.19004">
        <ele>2030</ele>
        <time>2022-07-25T11:06:11Z</time>
      </trkpt>
      <trkpt lat="42.85844" lon="0.19021">
        <ele>2028</ele>
        <time>2022-07-25T11:06:11Z</time>
      </trkpt>
      <trkpt lat="42.85841" lon="0.19037">
        <ele>2026</ele>
        <time>2022-07-25T11:06:11Z</time>
      </trkpt>
      <trkpt lat="42.85839" lon="0.1904">
        <ele>2025</ele>
        <time>2022-07-25T11:06:11Z</time>
      </trkpt>
      <trkpt lat="42.85834" lon="0.19041">
        <ele>2024</ele>
        <time>2022-07-25T11:06:11Z</time>
      </trkpt>
      <trkpt lat="42.85829" lon="0.19046">
        <ele>2023</ele>
        <time>2022-07-25T11:06:11Z</time>
      </trkpt>
      <trkpt lat="42.85826" lon="0.19053">
        <ele>2021</ele>
        <time>2022-07-25T11:06:11Z</time>
      </trkpt>
      <trkpt lat="42.85818" lon="0.19057">
        <ele>2019</ele>
        <time>2022-07-25T11:06:11Z</time>
      </trkpt>
      <trkpt lat="42.85815" lon="0.19063">
        <ele>2017</ele>
        <time>2022-07-25T11:06:11Z</time>
      </trkpt>
      <trkpt lat="42.85808" lon="0.19066">
        <ele>2015</ele>
        <time>2022-07-25T11:06:11Z</time>
      </trkpt>
      <trkpt lat="42.85806" lon="0.1907">
        <ele>2015</ele>
        <time>2022-07-25T11:06:11Z</time>
      </trkpt>
      <trkpt lat="42.85804" lon="0.19112">
        <ele>2016</ele>
        <time>2022-07-25T11:06:11Z</time>
      </trkpt>
      <trkpt lat="42.85794" lon="0.1913">
        <ele>2014</ele>
        <time>2022-07-25T11:06:11Z</time>
      </trkpt>
      <trkpt lat="42.85781" lon="0.19138">
        <ele>2010</ele>
        <time>2022-07-25T11:06:11Z</time>
      </trkpt>
      <trkpt lat="42.85777" lon="0.19141">
        <ele>2009</ele>
        <time>2022-07-25T11:06:11Z</time>
      </trkpt>
      <trkpt lat="42.8577" lon="0.19147">
        <ele>2007</ele>
        <time>2022-07-25T11:06:11Z</time>
      </trkpt>
      <trkpt lat="42.85759" lon="0.19159">
        <ele>2006</ele>
        <time>2022-07-25T11:06:11Z</time>
      </trkpt>
      <trkpt lat="42.85756" lon="0.19158">
        <ele>2005</ele>
        <time>2022-07-25T11:06:11Z</time>
      </trkpt>
      <trkpt lat="42.85751" lon="0.1916">
        <ele>2005</ele>
        <time>2022-07-25T11:06:11Z</time>
      </trkpt>
      <trkpt lat="42.85725" lon="0.19179">
        <ele>2005</ele>
        <time>2022-07-25T11:06:11Z</time>
      </trkpt>
      <trkpt lat="42.8571" lon="0.19187">
        <ele>2004</ele>
        <time>2022-07-25T11:06:11Z</time>
      </trkpt>
      <trkpt lat="42.85699" lon="0.1919">
        <ele>2002</ele>
        <time>2022-07-25T11:06:11Z</time>
      </trkpt>
      <trkpt lat="42.85692" lon="0.19195">
        <ele>2001</ele>
        <time>2022-07-25T11:06:11Z</time>
      </trkpt>
      <trkpt lat="42.85668" lon="0.19195">
        <ele>1997</ele>
        <time>2022-07-25T11:06:11Z</time>
      </trkpt>
      <trkpt lat="42.85647" lon="0.19207">
        <ele>1994</ele>
        <time>2022-07-25T11:06:11Z</time>
      </trkpt>
      <trkpt lat="42.85638" lon="0.19225">
        <ele>1992</ele>
        <time>2022-07-25T11:06:11Z</time>
      </trkpt>
      <trkpt lat="42.85634" lon="0.19242">
        <ele>1991</ele>
        <time>2022-07-25T11:06:11Z</time>
      </trkpt>
      <trkpt lat="42.85623" lon="0.19248">
        <ele>1990</ele>
        <time>2022-07-25T11:06:11Z</time>
      </trkpt>
      <trkpt lat="42.85609" lon="0.19264">
        <ele>1989</ele>
        <time>2022-07-25T11:06:11Z</time>
      </trkpt>
      <trkpt lat="42.85604" lon="0.19272">
        <ele>1989</ele>
        <time>2022-07-25T11:06:11Z</time>
      </trkpt>
      <trkpt lat="42.85599" lon="0.19273">
        <ele>1988</ele>
        <time>2022-07-25T11:06:11Z</time>
      </trkpt>
      <trkpt lat="42.85584" lon="0.19285">
        <ele>1987</ele>
        <time>2022-07-25T11:06:11Z</time>
      </trkpt>
      <trkpt lat="42.85574" lon="0.19287">
        <ele>1986</ele>
        <time>2022-07-25T11:06:11Z</time>
      </trkpt>
      <trkpt lat="42.85552" lon="0.19305">
        <ele>1984</ele>
        <time>2022-07-25T11:06:11Z</time>
      </trkpt>
      <trkpt lat="42.85534" lon="0.19305">
        <ele>1982</ele>
        <time>2022-07-25T11:06:11Z</time>
      </trkpt>
      <trkpt lat="42.85526" lon="0.19309">
        <ele>1981</ele>
        <time>2022-07-25T11:06:11Z</time>
      </trkpt>
      <trkpt lat="42.85523" lon="0.19306">
        <ele>1980</ele>
        <time>2022-07-25T11:06:11Z</time>
      </trkpt>
      <trkpt lat="42.85515" lon="0.19306">
        <ele>1979</ele>
        <time>2022-07-25T11:06:11Z</time>
      </trkpt>
      <trkpt lat="42.85513" lon="0.19303">
        <ele>1979</ele>
        <time>2022-07-25T11:06:11Z</time>
      </trkpt>
      <trkpt lat="42.85505" lon="0.19303">
        <ele>1979</ele>
        <time>2022-07-25T11:06:11Z</time>
      </trkpt>
      <trkpt lat="42.85491" lon="0.19307">
        <ele>1977</ele>
        <time>2022-07-25T11:06:11Z</time>
      </trkpt>
      <trkpt lat="42.85488" lon="0.19314">
        <ele>1977</ele>
        <time>2022-07-25T11:06:11Z</time>
      </trkpt>
      <trkpt lat="42.85487" lon="0.19331">
        <ele>1978</ele>
        <time>2022-07-25T11:06:11Z</time>
      </trkpt>
      <trkpt lat="42.85477" lon="0.19344">
        <ele>1978</ele>
        <time>2022-07-25T11:06:11Z</time>
      </trkpt>
      <trkpt lat="42.85474" lon="0.19351">
        <ele>1978</ele>
        <time>2022-07-25T11:06:11Z</time>
      </trkpt>
      <trkpt lat="42.85474" lon="0.19363">
        <ele>1979</ele>
        <time>2022-07-25T11:06:11Z</time>
      </trkpt>
      <trkpt lat="42.85465" lon="0.19376">
        <ele>1979</ele>
        <time>2022-07-25T11:06:11Z</time>
      </trkpt>
      <trkpt lat="42.85449" lon="0.19388">
        <ele>1978</ele>
        <time>2022-07-25T11:06:11Z</time>
      </trkpt>
      <trkpt lat="42.85432" lon="0.19404">
        <ele>1978</ele>
        <time>2022-07-25T11:06:11Z</time>
      </trkpt>
      <trkpt lat="42.85408" lon="0.19417">
        <ele>1977</ele>
        <time>2022-07-25T11:06:11Z</time>
      </trkpt>
      <trkpt lat="42.85396" lon="0.19426">
        <ele>1977</ele>
        <time>2022-07-25T11:06:11Z</time>
      </trkpt>
      <trkpt lat="42.85386" lon="0.19429">
        <ele>1976</ele>
        <time>2022-07-25T11:06:11Z</time>
      </trkpt>
      <trkpt lat="42.85358" lon="0.1943">
        <ele>1973</ele>
        <time>2022-07-25T11:06:11Z</time>
      </trkpt>
      <trkpt lat="42.85351" lon="0.19435">
        <ele>1973</ele>
        <time>2022-07-25T11:06:11Z</time>
      </trkpt>
      <trkpt lat="42.85342" lon="0.19437">
        <ele>1972</ele>
        <time>2022-07-25T11:06:11Z</time>
      </trkpt>
      <trkpt lat="42.85339" lon="0.1944">
        <ele>1972</ele>
        <time>2022-07-25T11:06:11Z</time>
      </trkpt>
      <trkpt lat="42.85335" lon="0.19441">
        <ele>1972</ele>
        <time>2022-07-25T11:06:11Z</time>
      </trkpt>
      <trkpt lat="42.85307" lon="0.19467">
        <ele>1972</ele>
        <time>2022-07-25T11:06:11Z</time>
      </trkpt>
      <trkpt lat="42.85288" lon="0.19475">
        <ele>1971</ele>
        <time>2022-07-25T11:06:11Z</time>
      </trkpt>
      <trkpt lat="42.85275" lon="0.19484">
        <ele>1970</ele>
        <time>2022-07-25T11:06:11Z</time>
      </trkpt>
      <trkpt lat="42.85265" lon="0.19485">
        <ele>1969</ele>
        <time>2022-07-25T11:06:11Z</time>
      </trkpt>
      <trkpt lat="42.85262" lon="0.1949">
        <ele>1969</ele>
        <time>2022-07-25T11:06:11Z</time>
      </trkpt>
      <trkpt lat="42.85257" lon="0.19492">
        <ele>1969</ele>
        <time>2022-07-25T11:06:11Z</time>
      </trkpt>
      <trkpt lat="42.85253" lon="0.19491">
        <ele>1969</ele>
        <time>2022-07-25T11:06:11Z</time>
      </trkpt>
      <trkpt lat="42.85241" lon="0.19494">
        <ele>1969</ele>
        <time>2022-07-25T11:06:11Z</time>
      </trkpt>
      <trkpt lat="42.85229" lon="0.19492">
        <ele>1967</ele>
        <time>2022-07-25T11:06:11Z</time>
      </trkpt>
      <trkpt lat="42.85215" lon="0.19486">
        <ele>1965</ele>
        <time>2022-07-25T11:06:11Z</time>
      </trkpt>
      <trkpt lat="42.85201" lon="0.19483">
        <ele>1963</ele>
        <time>2022-07-25T11:06:11Z</time>
      </trkpt>
      <trkpt lat="42.85188" lon="0.19475">
        <ele>1961</ele>
        <time>2022-07-25T11:06:11Z</time>
      </trkpt>
      <trkpt lat="42.85185" lon="0.19475">
        <ele>1961</ele>
        <time>2022-07-25T11:06:11Z</time>
      </trkpt>
      <trkpt lat="42.85183" lon="0.19471">
        <ele>1961</ele>
        <time>2022-07-25T11:06:11Z</time>
      </trkpt>
      <trkpt lat="42.85174" lon="0.1947">
        <ele>1960</ele>
        <time>2022-07-25T11:06:11Z</time>
      </trkpt>
      <trkpt lat="42.85169" lon="0.19455">
        <ele>1959</ele>
        <time>2022-07-25T11:06:11Z</time>
      </trkpt>
      <trkpt lat="42.85158" lon="0.19453">
        <ele>1958</ele>
        <time>2022-07-25T11:06:11Z</time>
      </trkpt>
      <trkpt lat="42.85144" lon="0.19442">
        <ele>1956</ele>
        <time>2022-07-25T11:06:11Z</time>
      </trkpt>
      <trkpt lat="42.85137" lon="0.19429">
        <ele>1954</ele>
        <time>2022-07-25T11:06:11Z</time>
      </trkpt>
      <trkpt lat="42.85128" lon="0.19419">
        <ele>1953</ele>
        <time>2022-07-25T11:06:11Z</time>
      </trkpt>
      <trkpt lat="42.85121" lon="0.19397">
        <ele>1950</ele>
        <time>2022-07-25T11:06:11Z</time>
      </trkpt>
      <trkpt lat="42.85125" lon="0.19374">
        <ele>1950</ele>
        <time>2022-07-25T11:06:11Z</time>
      </trkpt>
      <trkpt lat="42.85121" lon="0.19364">
        <ele>1949</ele>
        <time>2022-07-25T11:06:11Z</time>
      </trkpt>
      <trkpt lat="42.85112" lon="0.19361">
        <ele>1947</ele>
        <time>2022-07-25T11:06:11Z</time>
      </trkpt>
      <trkpt lat="42.85106" lon="0.19361">
        <ele>1946</ele>
        <time>2022-07-25T11:06:11Z</time>
      </trkpt>
      <trkpt lat="42.85103" lon="0.19363">
        <ele>1946</ele>
        <time>2022-07-25T11:06:11Z</time>
      </trkpt>
      <trkpt lat="42.851" lon="0.19361">
        <ele>1945</ele>
        <time>2022-07-25T11:06:11Z</time>
      </trkpt>
      <trkpt lat="42.85093" lon="0.19343">
        <ele>1943</ele>
        <time>2022-07-25T11:06:11Z</time>
      </trkpt>
      <trkpt lat="42.85084" lon="0.1933">
        <ele>1942</ele>
        <time>2022-07-25T11:06:11Z</time>
      </trkpt>
      <trkpt lat="42.85081" lon="0.19329">
        <ele>1942</ele>
        <time>2022-07-25T11:06:11Z</time>
      </trkpt>
      <trkpt lat="42.85074" lon="0.19332">
        <ele>1941</ele>
        <time>2022-07-25T11:06:11Z</time>
      </trkpt>
      <trkpt lat="42.85062" lon="0.19351">
        <ele>1942</ele>
        <time>2022-07-25T11:06:11Z</time>
      </trkpt>
      <trkpt lat="42.85058" lon="0.19352">
        <ele>1941</ele>
        <time>2022-07-25T11:06:11Z</time>
      </trkpt>
      <trkpt lat="42.85047" lon="0.19368">
        <ele>1941</ele>
        <time>2022-07-25T11:06:11Z</time>
      </trkpt>
      <trkpt lat="42.85038" lon="0.19377">
        <ele>1941</ele>
        <time>2022-07-25T11:06:11Z</time>
      </trkpt>
      <trkpt lat="42.85031" lon="0.19381">
        <ele>1940</ele>
        <time>2022-07-25T11:06:11Z</time>
      </trkpt>
      <trkpt lat="42.85026" lon="0.19393">
        <ele>1940</ele>
        <time>2022-07-25T11:06:11Z</time>
      </trkpt>
      <trkpt lat="42.85018" lon="0.19403">
        <ele>1940</ele>
        <time>2022-07-25T11:06:11Z</time>
      </trkpt>
      <trkpt lat="42.85001" lon="0.19404">
        <ele>1938</ele>
        <time>2022-07-25T11:06:11Z</time>
      </trkpt>
      <trkpt lat="42.84996" lon="0.19396">
        <ele>1937</ele>
        <time>2022-07-25T11:06:11Z</time>
      </trkpt>
      <trkpt lat="42.84985" lon="0.19391">
        <ele>1936</ele>
        <time>2022-07-25T11:06:11Z</time>
      </trkpt>
      <trkpt lat="42.84982" lon="0.19386">
        <ele>1935</ele>
        <time>2022-07-25T11:06:11Z</time>
      </trkpt>
      <trkpt lat="42.84975" lon="0.19386">
        <ele>1935</ele>
        <time>2022-07-25T11:06:11Z</time>
      </trkpt>
      <trkpt lat="42.84967" lon="0.19381">
        <ele>1934</ele>
        <time>2022-07-25T11:06:11Z</time>
      </trkpt>
      <trkpt lat="42.84962" lon="0.19381">
        <ele>1933</ele>
        <time>2022-07-25T11:06:11Z</time>
      </trkpt>
      <trkpt lat="42.84948" lon="0.19388">
        <ele>1932</ele>
        <time>2022-07-25T11:06:11Z</time>
      </trkpt>
      <trkpt lat="42.8494" lon="0.19395">
        <ele>1930</ele>
        <time>2022-07-25T11:06:11Z</time>
      </trkpt>
      <trkpt lat="42.84933" lon="0.19414">
        <ele>1931</ele>
        <time>2022-07-25T11:06:11Z</time>
      </trkpt>
      <trkpt lat="42.84926" lon="0.19422">
        <ele>1932</ele>
        <time>2022-07-25T11:06:11Z</time>
      </trkpt>
      <trkpt lat="42.84924" lon="0.19432">
        <ele>1933</ele>
        <time>2022-07-25T11:06:11Z</time>
      </trkpt>
      <trkpt lat="42.84908" lon="0.19435">
        <ele>1931</ele>
        <time>2022-07-25T11:06:11Z</time>
      </trkpt>
      <trkpt lat="42.84902" lon="0.19432">
        <ele>1930</ele>
        <time>2022-07-25T11:06:11Z</time>
      </trkpt>
      <trkpt lat="42.84898" lon="0.19438">
        <ele>1930</ele>
        <time>2022-07-25T11:06:11Z</time>
      </trkpt>
      <trkpt lat="42.84869" lon="0.1946">
        <ele>1929</ele>
        <time>2022-07-25T11:06:11Z</time>
      </trkpt>
      <trkpt lat="42.84859" lon="0.19473">
        <ele>1929</ele>
        <time>2022-07-25T11:06:11Z</time>
      </trkpt>
      <trkpt lat="42.84854" lon="0.19475">
        <ele>1929</ele>
        <time>2022-07-25T11:06:11Z</time>
      </trkpt>
      <trkpt lat="42.84821" lon="0.19479">
        <ele>1925</ele>
        <time>2022-07-25T11:06:11Z</time>
      </trkpt>
      <trkpt lat="42.84806" lon="0.19478">
        <ele>1923</ele>
        <time>2022-07-25T11:06:11Z</time>
      </trkpt>
      <trkpt lat="42.84801" lon="0.19474">
        <ele>1922</ele>
        <time>2022-07-25T11:06:11Z</time>
      </trkpt>
      <trkpt lat="42.84798" lon="0.19476">
        <ele>1921</ele>
        <time>2022-07-25T11:06:11Z</time>
      </trkpt>
      <trkpt lat="42.84796" lon="0.19474">
        <ele>1921</ele>
        <time>2022-07-25T11:06:11Z</time>
      </trkpt>
      <trkpt lat="42.8479" lon="0.19476">
        <ele>1920</ele>
        <time>2022-07-25T11:06:11Z</time>
      </trkpt>
      <trkpt lat="42.84785" lon="0.19469">
        <ele>1919</ele>
        <time>2022-07-25T11:06:11Z</time>
      </trkpt>
      <trkpt lat="42.84782" lon="0.19472">
        <ele>1919</ele>
        <time>2022-07-25T11:06:11Z</time>
      </trkpt>
      <trkpt lat="42.84779" lon="0.19468">
        <ele>1918</ele>
        <time>2022-07-25T11:06:11Z</time>
      </trkpt>
      <trkpt lat="42.84772" lon="0.19471">
        <ele>1917</ele>
        <time>2022-07-25T11:06:11Z</time>
      </trkpt>
      <trkpt lat="42.8477" lon="0.19467">
        <ele>1916</ele>
        <time>2022-07-25T11:06:11Z</time>
      </trkpt>
      <trkpt lat="42.84762" lon="0.19468">
        <ele>1915</ele>
        <time>2022-07-25T11:06:11Z</time>
      </trkpt>
      <trkpt lat="42.84762" lon="0.19462">
        <ele>1914</ele>
        <time>2022-07-25T11:06:11Z</time>
      </trkpt>
      <trkpt lat="42.84758" lon="0.19459">
        <ele>1913</ele>
        <time>2022-07-25T11:06:11Z</time>
      </trkpt>
      <trkpt lat="42.84757" lon="0.19454">
        <ele>1912</ele>
        <time>2022-07-25T11:06:11Z</time>
      </trkpt>
      <trkpt lat="42.84749" lon="0.19452">
        <ele>1911</ele>
        <time>2022-07-25T11:06:11Z</time>
      </trkpt>
      <trkpt lat="42.84744" lon="0.19454">
        <ele>1910</ele>
        <time>2022-07-25T11:06:11Z</time>
      </trkpt>
      <trkpt lat="42.8474" lon="0.19453">
        <ele>1909</ele>
        <time>2022-07-25T11:06:11Z</time>
      </trkpt>
      <trkpt lat="42.84736" lon="0.19444">
        <ele>1908</ele>
        <time>2022-07-25T11:06:11Z</time>
      </trkpt>
      <trkpt lat="42.84732" lon="0.19441">
        <ele>1907</ele>
        <time>2022-07-25T11:06:11Z</time>
      </trkpt>
      <trkpt lat="42.84729" lon="0.19443">
        <ele>1906</ele>
        <time>2022-07-25T11:06:11Z</time>
      </trkpt>
      <trkpt lat="42.84726" lon="0.19441">
        <ele>1906</ele>
        <time>2022-07-25T11:06:11Z</time>
      </trkpt>
      <trkpt lat="42.84721" lon="0.19444">
        <ele>1905</ele>
        <time>2022-07-25T11:06:11Z</time>
      </trkpt>
      <trkpt lat="42.84715" lon="0.19443">
        <ele>1904</ele>
        <time>2022-07-25T11:06:11Z</time>
      </trkpt>
      <trkpt lat="42.84711" lon="0.19447">
        <ele>1904</ele>
        <time>2022-07-25T11:06:11Z</time>
      </trkpt>
      <trkpt lat="42.84702" lon="0.19446">
        <ele>1902</ele>
        <time>2022-07-25T11:06:11Z</time>
      </trkpt>
      <trkpt lat="42.847" lon="0.19448">
        <ele>1902</ele>
        <time>2022-07-25T11:06:11Z</time>
      </trkpt>
      <trkpt lat="42.84698" lon="0.19446">
        <ele>1902</ele>
        <time>2022-07-25T11:06:11Z</time>
      </trkpt>
      <trkpt lat="42.84694" lon="0.19447">
        <ele>1901</ele>
        <time>2022-07-25T11:06:11Z</time>
      </trkpt>
      <trkpt lat="42.84693" lon="0.19449">
        <ele>1901</ele>
        <time>2022-07-25T11:06:11Z</time>
      </trkpt>
      <trkpt lat="42.84694" lon="0.19454">
        <ele>1902</ele>
        <time>2022-07-25T11:06:11Z</time>
      </trkpt>
      <trkpt lat="42.84683" lon="0.19466">
        <ele>1901</ele>
        <time>2022-07-25T11:06:11Z</time>
      </trkpt>
      <trkpt lat="42.84675" lon="0.19468">
        <ele>1900</ele>
        <time>2022-07-25T11:06:11Z</time>
      </trkpt>
      <trkpt lat="42.84673" lon="0.19463">
        <ele>1900</ele>
        <time>2022-07-25T11:06:11Z</time>
      </trkpt>
      <trkpt lat="42.84671" lon="0.19462">
        <ele>1899</ele>
        <time>2022-07-25T11:06:11Z</time>
      </trkpt>
      <trkpt lat="42.84668" lon="0.19466">
        <ele>1899</ele>
        <time>2022-07-25T11:06:11Z</time>
      </trkpt>
      <trkpt lat="42.84663" lon="0.19467">
        <ele>1899</ele>
        <time>2022-07-25T11:06:11Z</time>
      </trkpt>
      <trkpt lat="42.84657" lon="0.19473">
        <ele>1899</ele>
        <time>2022-07-25T11:06:11Z</time>
      </trkpt>
      <trkpt lat="42.84651" lon="0.19473">
        <ele>1898</ele>
        <time>2022-07-25T11:06:11Z</time>
      </trkpt>
      <trkpt lat="42.84645" lon="0.19477">
        <ele>1898</ele>
        <time>2022-07-25T11:06:11Z</time>
      </trkpt>
      <trkpt lat="42.84632" lon="0.19473">
        <ele>1896</ele>
        <time>2022-07-25T11:06:11Z</time>
      </trkpt>
      <trkpt lat="42.84629" lon="0.19467">
        <ele>1895</ele>
        <time>2022-07-25T11:06:11Z</time>
      </trkpt>
      <trkpt lat="42.84619" lon="0.19471">
        <ele>1895</ele>
        <time>2022-07-25T11:06:11Z</time>
      </trkpt>
      <trkpt lat="42.84601" lon="0.19473">
        <ele>1893</ele>
        <time>2022-07-25T11:06:11Z</time>
      </trkpt>
      <trkpt lat="42.84573" lon="0.19472">
        <ele>1889</ele>
        <time>2022-07-25T11:06:11Z</time>
      </trkpt>
      <trkpt lat="42.84563" lon="0.1948">
        <ele>1888</ele>
        <time>2022-07-25T11:06:11Z</time>
      </trkpt>
      <trkpt lat="42.84558" lon="0.19488">
        <ele>1889</ele>
        <time>2022-07-25T11:06:11Z</time>
      </trkpt>
      <trkpt lat="42.84553" lon="0.19498">
        <ele>1889</ele>
        <time>2022-07-25T11:06:11Z</time>
      </trkpt>
      <trkpt lat="42.84553" lon="0.19504">
        <ele>1890</ele>
        <time>2022-07-25T11:06:11Z</time>
      </trkpt>
      <trkpt lat="42.84545" lon="0.19505">
        <ele>1889</ele>
        <time>2022-07-25T11:06:11Z</time>
      </trkpt>
      <trkpt lat="42.84542" lon="0.1951">
        <ele>1889</ele>
        <time>2022-07-25T11:06:11Z</time>
      </trkpt>
      <trkpt lat="42.84539" lon="0.1951">
        <ele>1889</ele>
        <time>2022-07-25T11:06:11Z</time>
      </trkpt>
      <trkpt lat="42.84534" lon="0.19515">
        <ele>1888</ele>
        <time>2022-07-25T11:06:11Z</time>
      </trkpt>
      <trkpt lat="42.84534" lon="0.19518">
        <ele>1889</ele>
        <time>2022-07-25T11:06:11Z</time>
      </trkpt>
      <trkpt lat="42.84523" lon="0.1953">
        <ele>1888</ele>
        <time>2022-07-25T11:06:11Z</time>
      </trkpt>
      <trkpt lat="42.84524" lon="0.19534">
        <ele>1889</ele>
        <time>2022-07-25T11:06:11Z</time>
      </trkpt>
      <trkpt lat="42.84522" lon="0.19537">
        <ele>1889</ele>
        <time>2022-07-25T11:06:11Z</time>
      </trkpt>
      <trkpt lat="42.84515" lon="0.19541">
        <ele>1888</ele>
        <time>2022-07-25T11:06:11Z</time>
      </trkpt>
      <trkpt lat="42.84512" lon="0.19546">
        <ele>1888</ele>
        <time>2022-07-25T11:06:11Z</time>
      </trkpt>
      <trkpt lat="42.8451" lon="0.19556">
        <ele>1888</ele>
        <time>2022-07-25T11:06:11Z</time>
      </trkpt>
      <trkpt lat="42.84498" lon="0.1956">
        <ele>1886</ele>
        <time>2022-07-25T11:06:11Z</time>
      </trkpt>
      <trkpt lat="42.84487" lon="0.19569">
        <ele>1885</ele>
        <time>2022-07-25T11:06:11Z</time>
      </trkpt>
      <trkpt lat="42.8447" lon="0.19589">
        <ele>1884</ele>
        <time>2022-07-25T11:06:11Z</time>
      </trkpt>
      <trkpt lat="42.84452" lon="0.19601">
        <ele>1882</ele>
        <time>2022-07-25T11:06:11Z</time>
      </trkpt>
      <trkpt lat="42.84432" lon="0.19601">
        <ele>1878</ele>
        <time>2022-07-25T11:06:11Z</time>
      </trkpt>
      <trkpt lat="42.84409" lon="0.19599">
        <ele>1873</ele>
        <time>2022-07-25T11:06:11Z</time>
      </trkpt>
      <trkpt lat="42.84383" lon="0.19616">
        <ele>1869</ele>
        <time>2022-07-25T11:06:11Z</time>
      </trkpt>
      <trkpt lat="42.84377" lon="0.19622">
        <ele>1868</ele>
        <time>2022-07-25T11:06:11Z</time>
      </trkpt>
      <trkpt lat="42.84344" lon="0.19623">
        <ele>1862</ele>
        <time>2022-07-25T11:06:11Z</time>
      </trkpt>
      <trkpt lat="42.84334" lon="0.19633">
        <ele>1862</ele>
        <time>2022-07-25T11:06:11Z</time>
      </trkpt>
      <trkpt lat="42.84327" lon="0.19655">
        <ele>1862</ele>
        <time>2022-07-25T11:06:11Z</time>
      </trkpt>
      <trkpt lat="42.84298" lon="0.19692">
        <ele>1860</ele>
        <time>2022-07-25T11:06:11Z</time>
      </trkpt>
      <trkpt lat="42.84293" lon="0.19706">
        <ele>1860</ele>
        <time>2022-07-25T11:06:11Z</time>
      </trkpt>
      <trkpt lat="42.8429" lon="0.19707">
        <ele>1860</ele>
        <time>2022-07-25T11:06:11Z</time>
      </trkpt>
      <trkpt lat="42.84287" lon="0.19704">
        <ele>1859</ele>
        <time>2022-07-25T11:06:11Z</time>
      </trkpt>
      <trkpt lat="42.84283" lon="0.19705">
        <ele>1858</ele>
        <time>2022-07-25T11:06:11Z</time>
      </trkpt>
      <trkpt lat="42.84279" lon="0.19711">
        <ele>1857</ele>
        <time>2022-07-25T11:06:11Z</time>
      </trkpt>
      <trkpt lat="42.84278" lon="0.19716">
        <ele>1857</ele>
        <time>2022-07-25T11:06:11Z</time>
      </trkpt>
      <trkpt lat="42.84273" lon="0.1972">
        <ele>1856</ele>
        <time>2022-07-25T11:06:11Z</time>
      </trkpt>
      <trkpt lat="42.84271" lon="0.19728">
        <ele>1855</ele>
        <time>2022-07-25T11:06:11Z</time>
      </trkpt>
      <trkpt lat="42.84267" lon="0.19732">
        <ele>1854</ele>
        <time>2022-07-25T11:06:11Z</time>
      </trkpt>
      <trkpt lat="42.8425" lon="0.1976">
        <ele>1856</ele>
        <time>2022-07-25T11:06:11Z</time>
      </trkpt>
      <trkpt lat="42.84241" lon="0.19767">
        <ele>1856</ele>
        <time>2022-07-25T11:06:11Z</time>
      </trkpt>
      <trkpt lat="42.84239" lon="0.19774">
        <ele>1857</ele>
        <time>2022-07-25T11:06:11Z</time>
      </trkpt>
      <trkpt lat="42.84234" lon="0.19775">
        <ele>1856</ele>
        <time>2022-07-25T11:06:11Z</time>
      </trkpt>
      <trkpt lat="42.8422" lon="0.19785">
        <ele>1854</ele>
        <time>2022-07-25T11:06:11Z</time>
      </trkpt>
      <trkpt lat="42.84208" lon="0.19787">
        <ele>1851</ele>
        <time>2022-07-25T11:06:11Z</time>
      </trkpt>
      <trkpt lat="42.84209" lon="0.19793">
        <ele>1852</ele>
        <time>2022-07-25T11:06:11Z</time>
      </trkpt>
      <trkpt lat="42.84211" lon="0.19795">
        <ele>1853</ele>
        <time>2022-07-25T11:06:11Z</time>
      </trkpt>
      <trkpt lat="42.8421" lon="0.19801">
        <ele>1854</ele>
        <time>2022-07-25T11:06:11Z</time>
      </trkpt>
      <trkpt lat="42.84203" lon="0.19809">
        <ele>1853</ele>
        <time>2022-07-25T11:06:11Z</time>
      </trkpt>
      <trkpt lat="42.84197" lon="0.19812">
        <ele>1852</ele>
        <time>2022-07-25T11:06:11Z</time>
      </trkpt>
      <trkpt lat="42.84189" lon="0.19822">
        <ele>1852</ele>
        <time>2022-07-25T11:06:11Z</time>
      </trkpt>
      <trkpt lat="42.84172" lon="0.19823">
        <ele>1848</ele>
        <time>2022-07-25T11:06:11Z</time>
      </trkpt>
      <trkpt lat="42.84155" lon="0.19817">
        <ele>1842</ele>
        <time>2022-07-25T11:06:11Z</time>
      </trkpt>
      <trkpt lat="42.84147" lon="0.19825">
        <ele>1843</ele>
        <time>2022-07-25T11:06:11Z</time>
      </trkpt>
      <trkpt lat="42.84108" lon="0.19846">
        <ele>1839</ele>
        <time>2022-07-25T11:06:11Z</time>
      </trkpt>
      <trkpt lat="42.84103" lon="0.19844">
        <ele>1837</ele>
        <time>2022-07-25T11:06:11Z</time>
      </trkpt>
      <trkpt lat="42.841" lon="0.1984">
        <ele>1836</ele>
        <time>2022-07-25T11:06:11Z</time>
      </trkpt>
      <trkpt lat="42.84078" lon="0.19835">
        <ele>1831</ele>
        <time>2022-07-25T11:06:11Z</time>
      </trkpt>
      <trkpt lat="42.84076" lon="0.19834">
        <ele>1831</ele>
        <time>2022-07-25T11:06:11Z</time>
      </trkpt>
      <trkpt lat="42.84071" lon="0.19831">
        <ele>1830</ele>
        <time>2022-07-25T11:06:11Z</time>
      </trkpt>
      <trkpt lat="42.8405" lon="0.19843">
        <ele>1829</ele>
        <time>2022-07-25T11:06:11Z</time>
      </trkpt>
      <trkpt lat="42.84023" lon="0.19869">
        <ele>1831</ele>
        <time>2022-07-25T11:06:11Z</time>
      </trkpt>
      <trkpt lat="42.8402" lon="0.1987">
        <ele>1831</ele>
        <time>2022-07-25T11:06:11Z</time>
      </trkpt>
      <trkpt lat="42.84014" lon="0.19868">
        <ele>1830</ele>
        <time>2022-07-25T11:06:11Z</time>
      </trkpt>
      <trkpt lat="42.84011" lon="0.1987">
        <ele>1830</ele>
        <time>2022-07-25T11:06:11Z</time>
      </trkpt>
      <trkpt lat="42.84003" lon="0.19891">
        <ele>1833</ele>
        <time>2022-07-25T11:06:11Z</time>
      </trkpt>
      <trkpt lat="42.84002" lon="0.19903">
        <ele>1836</ele>
        <time>2022-07-25T11:06:11Z</time>
      </trkpt>
      <trkpt lat="42.84005" lon="0.19909">
        <ele>1838</ele>
        <time>2022-07-25T11:06:11Z</time>
      </trkpt>
      <trkpt lat="42.84015" lon="0.19921">
        <ele>1843</ele>
        <time>2022-07-25T11:06:11Z</time>
      </trkpt>
      <trkpt lat="42.84021" lon="0.19925">
        <ele>1845</ele>
        <time>2022-07-25T11:06:11Z</time>
      </trkpt>
      <trkpt lat="42.84025" lon="0.19932">
        <ele>1848</ele>
        <time>2022-07-25T11:06:11Z</time>
      </trkpt>
      <trkpt lat="42.84031" lon="0.19957">
        <ele>1856</ele>
        <time>2022-07-25T11:06:11Z</time>
      </trkpt>
      <trkpt lat="42.84061" lon="0.19989">
        <ele>1870</ele>
        <time>2022-07-25T11:06:11Z</time>
      </trkpt>
      <trkpt lat="42.84061" lon="0.19995">
        <ele>1872</ele>
        <time>2022-07-25T11:06:11Z</time>
      </trkpt>
      <trkpt lat="42.84056" lon="0.19995">
        <ele>1872</ele>
        <time>2022-07-25T11:06:11Z</time>
      </trkpt>
      <trkpt lat="42.84055" lon="0.2">
        <ele>1873</ele>
        <time>2022-07-25T11:06:11Z</time>
      </trkpt>
      <trkpt lat="42.84046" lon="0.20015">
        <ele>1877</ele>
        <time>2022-07-25T11:06:11Z</time>
      </trkpt>
      <trkpt lat="42.84043" lon="0.20033">
        <ele>1883</ele>
        <time>2022-07-25T11:06:11Z</time>
      </trkpt>
      <trkpt lat="42.84041" lon="0.2004">
        <ele>1886</ele>
        <time>2022-07-25T11:06:11Z</time>
      </trkpt>
      <trkpt lat="42.84028" lon="0.20055">
        <ele>1889</ele>
        <time>2022-07-25T11:06:11Z</time>
      </trkpt>
      <trkpt lat="42.84027" lon="0.20065">
        <ele>1893</ele>
        <time>2022-07-25T11:06:11Z</time>
      </trkpt>
      <trkpt lat="42.84021" lon="0.20071">
        <ele>1894</ele>
        <time>2022-07-25T11:06:11Z</time>
      </trkpt>
      <trkpt lat="42.84019" lon="0.20079">
        <ele>1897</ele>
        <time>2022-07-25T11:06:11Z</time>
      </trkpt>
      <trkpt lat="42.84013" lon="0.20082">
        <ele>1898</ele>
        <time>2022-07-25T11:06:11Z</time>
      </trkpt>
      <trkpt lat="42.84004" lon="0.20083">
        <ele>1896</ele>
        <time>2022-07-25T11:06:11Z</time>
      </trkpt>
      <trkpt lat="42.83992" lon="0.20093">
        <ele>1898</ele>
        <time>2022-07-25T11:06:11Z</time>
      </trkpt>
      <trkpt lat="42.8399" lon="0.20094">
        <ele>1898</ele>
        <time>2022-07-25T11:06:11Z</time>
      </trkpt>
      <trkpt lat="42.83986" lon="0.20098">
        <ele>1899</ele>
        <time>2022-07-25T11:06:11Z</time>
      </trkpt>
      <trkpt lat="42.83971" lon="0.20117">
        <ele>1903</ele>
        <time>2022-07-25T11:06:11Z</time>
      </trkpt>
      <trkpt lat="42.83955" lon="0.20133">
        <ele>1905</ele>
        <time>2022-07-25T11:06:11Z</time>
      </trkpt>
      <trkpt lat="42.83941" lon="0.20141">
        <ele>1905</ele>
        <time>2022-07-25T11:06:11Z</time>
      </trkpt>
      <trkpt lat="42.83927" lon="0.20159">
        <ele>1909</ele>
        <time>2022-07-25T11:06:11Z</time>
      </trkpt>
      <trkpt lat="42.83923" lon="0.20165">
        <ele>1910</ele>
        <time>2022-07-25T11:06:11Z</time>
      </trkpt>
      <trkpt lat="42.83922" lon="0.2017">
        <ele>1912</ele>
        <time>2022-07-25T11:06:11Z</time>
      </trkpt>
      <trkpt lat="42.83918" lon="0.20175">
        <ele>1912</ele>
        <time>2022-07-25T11:06:11Z</time>
      </trkpt>
      <trkpt lat="42.83913" lon="0.20174">
        <ele>1911</ele>
        <time>2022-07-25T11:06:11Z</time>
      </trkpt>
      <trkpt lat="42.83909" lon="0.20176">
        <ele>1911</ele>
        <time>2022-07-25T11:06:11Z</time>
      </trkpt>
      <trkpt lat="42.83904" lon="0.20182">
        <ele>1912</ele>
        <time>2022-07-25T11:06:11Z</time>
      </trkpt>
      <trkpt lat="42.83886" lon="0.20213">
        <ele>1918</ele>
        <time>2022-07-25T11:06:11Z</time>
      </trkpt>
      <trkpt lat="42.83881" lon="0.20217">
        <ele>1918</ele>
        <time>2022-07-25T11:06:11Z</time>
      </trkpt>
      <trkpt lat="42.83855" lon="0.20224">
        <ele>1914</ele>
        <time>2022-07-25T11:06:11Z</time>
      </trkpt>
      <trkpt lat="42.8385" lon="0.20234">
        <ele>1916</ele>
        <time>2022-07-25T11:06:11Z</time>
      </trkpt>
      <trkpt lat="42.83834" lon="0.20235">
        <ele>1912</ele>
        <time>2022-07-25T11:06:11Z</time>
      </trkpt>
      <trkpt lat="42.83828" lon="0.20244">
        <ele>1915</ele>
        <time>2022-07-25T11:06:11Z</time>
      </trkpt>
      <trkpt lat="42.83825" lon="0.20256">
        <ele>1920</ele>
        <time>2022-07-25T11:06:11Z</time>
      </trkpt>
      <trkpt lat="42.83821" lon="0.20263">
        <ele>1922</ele>
        <time>2022-07-25T11:06:11Z</time>
      </trkpt>
      <trkpt lat="42.83817" lon="0.20264">
        <ele>1921</ele>
        <time>2022-07-25T11:06:11Z</time>
      </trkpt>
      <trkpt lat="42.83812" lon="0.20272">
        <ele>1923</ele>
        <time>2022-07-25T11:06:11Z</time>
      </trkpt>
      <trkpt lat="42.83803" lon="0.20272">
        <ele>1921</ele>
        <time>2022-07-25T11:06:11Z</time>
      </trkpt>
      <trkpt lat="42.83792" lon="0.20285">
        <ele>1923</ele>
        <time>2022-07-25T11:06:11Z</time>
      </trkpt>
      <trkpt lat="42.83786" lon="0.20285">
        <ele>1922</ele>
        <time>2022-07-25T11:06:11Z</time>
      </trkpt>
      <trkpt lat="42.83785" lon="0.20288">
        <ele>1923</ele>
        <time>2022-07-25T11:06:11Z</time>
      </trkpt>
      <trkpt lat="42.83782" lon="0.20287">
        <ele>1921</ele>
        <time>2022-07-25T11:06:11Z</time>
      </trkpt>
      <trkpt lat="42.8378" lon="0.20291">
        <ele>1923</ele>
        <time>2022-07-25T11:06:11Z</time>
      </trkpt>
      <trkpt lat="42.83775" lon="0.20292">
        <ele>1922</ele>
        <time>2022-07-25T11:06:11Z</time>
      </trkpt>
      <trkpt lat="42.8377" lon="0.20291">
        <ele>1920</ele>
        <time>2022-07-25T11:06:11Z</time>
      </trkpt>
      <trkpt lat="42.83762" lon="0.20295">
        <ele>1919</ele>
        <time>2022-07-25T11:06:11Z</time>
      </trkpt>
      <trkpt lat="42.83758" lon="0.20306">
        <ele>1924</ele>
        <time>2022-07-25T11:06:11Z</time>
      </trkpt>
      <trkpt lat="42.83727" lon="0.20329">
        <ele>1928</ele>
        <time>2022-07-25T11:06:11Z</time>
      </trkpt>
      <trkpt lat="42.83711" lon="0.20349">
        <ele>1933</ele>
        <time>2022-07-25T11:06:11Z</time>
      </trkpt>
      <trkpt lat="42.83701" lon="0.20357">
        <ele>1935</ele>
        <time>2022-07-25T11:06:11Z</time>
      </trkpt>
      <trkpt lat="42.8367" lon="0.20394">
        <ele>1942</ele>
        <time>2022-07-25T11:06:11Z</time>
      </trkpt>
      <trkpt lat="42.83664" lon="0.20398">
        <ele>1941</ele>
        <time>2022-07-25T11:06:11Z</time>
      </trkpt>
      <trkpt lat="42.83661" lon="0.20406">
        <ele>1944</ele>
        <time>2022-07-25T11:06:11Z</time>
      </trkpt>
      <trkpt lat="42.83653" lon="0.20411">
        <ele>1944</ele>
        <time>2022-07-25T11:06:11Z</time>
      </trkpt>
      <trkpt lat="42.83648" lon="0.20418">
        <ele>1945</ele>
        <time>2022-07-25T11:06:11Z</time>
      </trkpt>
      <trkpt lat="42.8364" lon="0.20423">
        <ele>1944</ele>
        <time>2022-07-25T11:06:11Z</time>
      </trkpt>
      <trkpt lat="42.83628" lon="0.2044">
        <ele>1947</ele>
        <time>2022-07-25T11:06:11Z</time>
      </trkpt>
      <trkpt lat="42.83609" lon="0.20456">
        <ele>1946</ele>
        <time>2022-07-25T11:06:11Z</time>
      </trkpt>
      <trkpt lat="42.83594" lon="0.20473">
        <ele>1947</ele>
        <time>2022-07-25T11:06:11Z</time>
      </trkpt>
      <trkpt lat="42.83588" lon="0.20477">
        <ele>1946</ele>
        <time>2022-07-25T11:06:11Z</time>
      </trkpt>
      <trkpt lat="42.8358" lon="0.20495">
        <ele>1951</ele>
        <time>2022-07-25T11:06:11Z</time>
      </trkpt>
      <trkpt lat="42.83579" lon="0.2051">
        <ele>1957</ele>
        <time>2022-07-25T11:06:11Z</time>
      </trkpt>
      <trkpt lat="42.83573" lon="0.2054">
        <ele>1968</ele>
        <time>2022-07-25T11:06:11Z</time>
      </trkpt>
      <trkpt lat="42.83561" lon="0.20571">
        <ele>1978</ele>
        <time>2022-07-25T11:06:11Z</time>
      </trkpt>
      <trkpt lat="42.83541" lon="0.20567">
        <ele>1973</ele>
        <time>2022-07-25T11:06:11Z</time>
      </trkpt>
      <trkpt lat="42.8352" lon="0.20567">
        <ele>1969</ele>
        <time>2022-07-25T11:06:11Z</time>
      </trkpt>
      <trkpt lat="42.83511" lon="0.20563">
        <ele>1965</ele>
        <time>2022-07-25T11:06:11Z</time>
      </trkpt>
      <trkpt lat="42.83504" lon="0.20562">
        <ele>1963</ele>
        <time>2022-07-25T11:06:11Z</time>
      </trkpt>
      <trkpt lat="42.83496" lon="0.20565">
        <ele>1963</ele>
        <time>2022-07-25T11:06:11Z</time>
      </trkpt>
      <trkpt lat="42.83491" lon="0.20575">
        <ele>1966</ele>
        <time>2022-07-25T11:06:11Z</time>
      </trkpt>
      <trkpt lat="42.83486" lon="0.20593">
        <ele>1973</ele>
        <time>2022-07-25T11:06:11Z</time>
      </trkpt>
      <trkpt lat="42.83473" lon="0.20609">
        <ele>1977</ele>
        <time>2022-07-25T11:06:11Z</time>
      </trkpt>
      <trkpt lat="42.8346" lon="0.20621">
        <ele>1980</ele>
        <time>2022-07-25T11:06:11Z</time>
      </trkpt>
      <trkpt lat="42.83446" lon="0.2063">
        <ele>1982</ele>
        <time>2022-07-25T11:06:11Z</time>
      </trkpt>
      <trkpt lat="42.83431" lon="0.20648">
        <ele>1987</ele>
        <time>2022-07-25T11:06:11Z</time>
      </trkpt>
      <trkpt lat="42.83426" lon="0.2065">
        <ele>1988</ele>
        <time>2022-07-25T11:06:11Z</time>
      </trkpt>
      <trkpt lat="42.83422" lon="0.20656">
        <ele>1990</ele>
        <time>2022-07-25T11:06:11Z</time>
      </trkpt>
      <trkpt lat="42.83405" lon="0.20667">
        <ele>1993</ele>
        <time>2022-07-25T11:06:11Z</time>
      </trkpt>
      <trkpt lat="42.83395" lon="0.20677">
        <ele>1996</ele>
        <time>2022-07-25T11:06:11Z</time>
      </trkpt>
      <trkpt lat="42.83386" lon="0.20683">
        <ele>1998</ele>
        <time>2022-07-25T11:06:11Z</time>
      </trkpt>
      <trkpt lat="42.8338" lon="0.20692">
        <ele>2001</ele>
        <time>2022-07-25T11:06:11Z</time>
      </trkpt>
      <trkpt lat="42.83356" lon="0.20698">
        <ele>2001</ele>
        <time>2022-07-25T11:06:11Z</time>
      </trkpt>
      <trkpt lat="42.83333" lon="0.20716">
        <ele>2005</ele>
        <time>2022-07-25T11:06:11Z</time>
      </trkpt>
      <trkpt lat="42.83327" lon="0.20713">
        <ele>2002</ele>
        <time>2022-07-25T11:06:11Z</time>
      </trkpt>
      <trkpt lat="42.83324" lon="0.20707">
        <ele>1999</ele>
        <time>2022-07-25T11:06:11Z</time>
      </trkpt>
      <trkpt lat="42.83312" lon="0.20706">
        <ele>1995</ele>
        <time>2022-07-25T11:06:11Z</time>
      </trkpt>
      <trkpt lat="42.83289" lon="0.20711">
        <ele>1993</ele>
        <time>2022-07-25T11:06:11Z</time>
      </trkpt>
      <trkpt lat="42.83273" lon="0.20723">
        <ele>1997</ele>
        <time>2022-07-25T11:06:11Z</time>
      </trkpt>
      <trkpt lat="42.83261" lon="0.20727">
        <ele>1997</ele>
        <time>2022-07-25T11:06:11Z</time>
      </trkpt>
      <trkpt lat="42.83232" lon="0.20733">
        <ele>1993</ele>
        <time>2022-07-25T11:06:11Z</time>
      </trkpt>
      <trkpt lat="42.83214" lon="0.20743">
        <ele>1993</ele>
        <time>2022-07-25T11:06:11Z</time>
      </trkpt>
      <trkpt lat="42.8319" lon="0.2076">
        <ele>1994</ele>
        <time>2022-07-25T11:06:11Z</time>
      </trkpt>
      <trkpt lat="42.83185" lon="0.2077">
        <ele>1997</ele>
        <time>2022-07-25T11:06:11Z</time>
      </trkpt>
      <trkpt lat="42.83182" lon="0.20772">
        <ele>1997</ele>
        <time>2022-07-25T11:06:11Z</time>
      </trkpt>
      <trkpt lat="42.83179" lon="0.2077">
        <ele>1996</ele>
        <time>2022-07-25T11:06:11Z</time>
      </trkpt>
      <trkpt lat="42.83166" lon="0.20781">
        <ele>1996</ele>
        <time>2022-07-25T11:06:11Z</time>
      </trkpt>
      <trkpt lat="42.83157" lon="0.20798">
        <ele>2000</ele>
        <time>2022-07-25T11:06:11Z</time>
      </trkpt>
      <trkpt lat="42.83151" lon="0.20799">
        <ele>1999</ele>
        <time>2022-07-25T11:06:11Z</time>
      </trkpt>
      <trkpt lat="42.83113" lon="0.20834">
        <ele>2001</ele>
        <time>2022-07-25T11:06:11Z</time>
      </trkpt>
      <trkpt lat="42.83091" lon="0.20846">
        <ele>1999</ele>
        <time>2022-07-25T11:06:11Z</time>
      </trkpt>
      <trkpt lat="42.83085" lon="0.20851">
        <ele>2000</ele>
        <time>2022-07-25T11:06:11Z</time>
      </trkpt>
      <trkpt lat="42.83079" lon="0.20852">
        <ele>1998</ele>
        <time>2022-07-25T11:06:11Z</time>
      </trkpt>
      <trkpt lat="42.83068" lon="0.20868">
        <ele>2002</ele>
        <time>2022-07-25T11:06:11Z</time>
      </trkpt>
      <trkpt lat="42.83033" lon="0.20893">
        <ele>2002</ele>
        <time>2022-07-25T11:06:11Z</time>
      </trkpt>
      <trkpt lat="42.83018" lon="0.20906">
        <ele>2003</ele>
        <time>2022-07-25T11:06:11Z</time>
      </trkpt>
      <trkpt lat="42.82996" lon="0.20929">
        <ele>2006</ele>
        <time>2022-07-25T11:06:11Z</time>
      </trkpt>
      <trkpt lat="42.82993" lon="0.20936">
        <ele>2008</ele>
        <time>2022-07-25T11:06:11Z</time>
      </trkpt>
      <trkpt lat="42.82955" lon="0.20968">
        <ele>2007</ele>
        <time>2022-07-25T11:06:11Z</time>
      </trkpt>
      <trkpt lat="42.82946" lon="0.2098">
        <ele>2009</ele>
        <time>2022-07-25T11:06:11Z</time>
      </trkpt>
      <trkpt lat="42.82906" lon="0.21032">
        <ele>2012</ele>
        <time>2022-07-25T11:06:11Z</time>
      </trkpt>
      <trkpt lat="42.82901" lon="0.21046">
        <ele>2014</ele>
        <time>2022-07-25T11:06:11Z</time>
      </trkpt>
      <trkpt lat="42.82898" lon="0.2107">
        <ele>2020</ele>
        <time>2022-07-25T11:06:11Z</time>
      </trkpt>
      <trkpt lat="42.82893" lon="0.21077">
        <ele>2020</ele>
        <time>2022-07-25T11:06:11Z</time>
      </trkpt>
      <trkpt lat="42.82893" lon="0.21078">
        <ele>2020</ele>
        <time>2022-07-25T11:06:11Z</time>
      </trkpt>
      <trkpt lat="42.82884" lon="0.21092">
        <ele>2021</ele>
        <time>2022-07-25T11:06:11Z</time>
      </trkpt>
      <trkpt lat="42.82873" lon="0.211">
        <ele>2020</ele>
        <time>2022-07-25T11:06:11Z</time>
      </trkpt>
      <trkpt lat="42.82863" lon="0.21119">
        <ele>2021</ele>
        <time>2022-07-25T11:06:11Z</time>
      </trkpt>
      <trkpt lat="42.82858" lon="0.21125">
        <ele>2021</ele>
        <time>2022-07-25T11:06:11Z</time>
      </trkpt>
      <trkpt lat="42.82853" lon="0.21139">
        <ele>2022</ele>
        <time>2022-07-25T11:06:11Z</time>
      </trkpt>
      <trkpt lat="42.82843" lon="0.21153">
        <ele>2023</ele>
        <time>2022-07-25T11:06:11Z</time>
      </trkpt>
      <trkpt lat="42.82837" lon="0.21157">
        <ele>2022</ele>
        <time>2022-07-25T11:06:11Z</time>
      </trkpt>
      <trkpt lat="42.8283" lon="0.21166">
        <ele>2021</ele>
        <time>2022-07-25T11:06:11Z</time>
      </trkpt>
      <trkpt lat="42.82823" lon="0.21218">
        <ele>2025</ele>
        <time>2022-07-25T11:06:11Z</time>
      </trkpt>
      <trkpt lat="42.8281" lon="0.21254">
        <ele>2024</ele>
        <time>2022-07-25T11:06:11Z</time>
      </trkpt>
      <trkpt lat="42.828" lon="0.21273">
        <ele>2021</ele>
        <time>2022-07-25T11:06:11Z</time>
      </trkpt>
      <trkpt lat="42.8279" lon="0.21307">
        <ele>2019</ele>
        <time>2022-07-25T11:06:11Z</time>
      </trkpt>
      <trkpt lat="42.82784" lon="0.2136">
        <ele>2019</ele>
        <time>2022-07-25T11:06:11Z</time>
      </trkpt>
      <trkpt lat="42.82781" lon="0.21403">
        <ele>2019</ele>
        <time>2022-07-25T11:06:11Z</time>
      </trkpt>
      <trkpt lat="42.82775" lon="0.21448">
        <ele>2019</ele>
        <time>2022-07-25T11:06:11Z</time>
      </trkpt>
      <trkpt lat="42.82772" lon="0.2148">
        <ele>2019</ele>
        <time>2022-07-25T11:06:11Z</time>
      </trkpt>
      <trkpt lat="42.82777" lon="0.21506">
        <ele>2021</ele>
        <time>2022-07-25T11:06:11Z</time>
      </trkpt>
      <trkpt lat="42.82776" lon="0.21546">
        <ele>2022</ele>
        <time>2022-07-25T11:06:11Z</time>
      </trkpt>
      <trkpt lat="42.82774" lon="0.21638">
        <ele>2025</ele>
        <time>2022-07-25T11:06:11Z</time>
      </trkpt>
      <trkpt lat="42.82776" lon="0.21673">
        <ele>2026</ele>
        <time>2022-07-25T11:06:11Z</time>
      </trkpt>
      <trkpt lat="42.82768" lon="0.21701">
        <ele>2025</ele>
        <time>2022-07-25T11:06:11Z</time>
      </trkpt>
      <trkpt lat="42.82765" lon="0.21746">
        <ele>2026</ele>
        <time>2022-07-25T11:06:11Z</time>
      </trkpt>
      <trkpt lat="42.82759" lon="0.21778">
        <ele>2027</ele>
        <time>2022-07-25T11:06:11Z</time>
      </trkpt>
      <trkpt lat="42.82752" lon="0.21793">
        <ele>2028</ele>
        <time>2022-07-25T11:06:11Z</time>
      </trkpt>
      <trkpt lat="42.8275" lon="0.21805">
        <ele>2028</ele>
        <time>2022-07-25T11:06:11Z</time>
      </trkpt>
      <trkpt lat="42.8275" lon="0.21821">
        <ele>2029</ele>
        <time>2022-07-25T11:06:11Z</time>
      </trkpt>
      <trkpt lat="42.82778" lon="0.21919">
        <ele>2032</ele>
        <time>2022-07-25T11:06:11Z</time>
      </trkpt>
      <trkpt lat="42.82787" lon="0.21974">
        <ele>2034</ele>
        <time>2022-07-25T11:06:11Z</time>
      </trkpt>
      <trkpt lat="42.82796" lon="0.21992">
        <ele>2035</ele>
        <time>2022-07-25T11:06:11Z</time>
      </trkpt>
      <trkpt lat="42.82805" lon="0.22003">
        <ele>2036</ele>
        <time>2022-07-25T11:06:11Z</time>
      </trkpt>
      <trkpt lat="42.82829" lon="0.22036">
        <ele>2038</ele>
        <time>2022-07-25T11:06:11Z</time>
      </trkpt>
      <trkpt lat="42.82843" lon="0.22063">
        <ele>2039</ele>
        <time>2022-07-25T11:06:11Z</time>
      </trkpt>
      <trkpt lat="42.82834" lon="0.22118">
        <ele>2039</ele>
        <time>2022-07-25T11:06:11Z</time>
      </trkpt>
      <trkpt lat="42.82836" lon="0.22163">
        <ele>2040</ele>
        <time>2022-07-25T11:06:11Z</time>
      </trkpt>
      <trkpt lat="42.82836" lon="0.22184">
        <ele>2041</ele>
        <time>2022-07-25T11:06:11Z</time>
      </trkpt>
      <trkpt lat="42.82837" lon="0.22198">
        <ele>2042</ele>
        <time>2022-07-25T11:06:11Z</time>
      </trkpt>
      <trkpt lat="42.82833" lon="0.22236">
        <ele>2043</ele>
        <time>2022-07-25T11:06:11Z</time>
      </trkpt>
      <trkpt lat="42.82833" lon="0.22256">
        <ele>2045</ele>
        <time>2022-07-25T11:06:11Z</time>
      </trkpt>
      <trkpt lat="42.82843" lon="0.22291">
        <ele>2049</ele>
        <time>2022-07-25T11:06:11Z</time>
      </trkpt>
      <trkpt lat="42.82848" lon="0.22323">
        <ele>2052</ele>
        <time>2022-07-25T11:06:11Z</time>
      </trkpt>
      <trkpt lat="42.82852" lon="0.22383">
        <ele>2060</ele>
        <time>2022-07-25T11:06:11Z</time>
      </trkpt>
      <trkpt lat="42.82849" lon="0.22396">
        <ele>2062</ele>
        <time>2022-07-25T11:06:11Z</time>
      </trkpt>
      <trkpt lat="42.82848" lon="0.22443">
        <ele>2070</ele>
        <time>2022-07-25T11:06:11Z</time>
      </trkpt>
      <trkpt lat="42.82854" lon="0.22513">
        <ele>2080</ele>
        <time>2022-07-25T11:06:11Z</time>
      </trkpt>
      <trkpt lat="42.8286" lon="0.22582">
        <ele>2088</ele>
        <time>2022-07-25T11:06:11Z</time>
      </trkpt>
      <trkpt lat="42.8288" lon="0.227">
        <ele>2102</ele>
        <time>2022-07-25T11:06:11Z</time>
      </trkpt>
      <trkpt lat="42.829" lon="0.22818">
        <ele>2116</ele>
        <time>2022-07-25T11:06:11Z</time>
      </trkpt>
      <trkpt lat="42.82917" lon="0.22886">
        <ele>2123</ele>
        <time>2022-07-25T11:06:11Z</time>
      </trkpt>
      <trkpt lat="42.82944" lon="0.22951">
        <ele>2134</ele>
        <time>2022-07-25T11:06:11Z</time>
      </trkpt>
      <trkpt lat="42.82973" lon="0.23008">
        <ele>2145</ele>
        <time>2022-07-25T11:06:11Z</time>
      </trkpt>
      <trkpt lat="42.83002" lon="0.23065">
        <ele>2153</ele>
        <time>2022-07-25T11:06:11Z</time>
      </trkpt>
      <trkpt lat="42.83001" lon="0.23065">
        <ele>2153</ele>
        <time>2022-07-25T11:06:11Z</time>
      </trkpt>
      <trkpt lat="42.83023" lon="0.23107">
        <ele>2159</ele>
        <time>2022-07-25T11:06:11Z</time>
      </trkpt>
      <trkpt lat="42.83033" lon="0.23119">
        <ele>2163</ele>
        <time>2022-07-25T11:06:11Z</time>
      </trkpt>
      <trkpt lat="42.83037" lon="0.23139">
        <ele>2165</ele>
        <time>2022-07-25T11:06:11Z</time>
      </trkpt>
      <trkpt lat="42.83063" lon="0.23207">
        <ele>2177</ele>
        <time>2022-07-25T11:06:11Z</time>
      </trkpt>
      <trkpt lat="42.83072" lon="0.23242">
        <ele>2181</ele>
        <time>2022-07-25T11:06:11Z</time>
      </trkpt>
      <trkpt lat="42.83081" lon="0.23268">
        <ele>2183</ele>
        <time>2022-07-25T11:06:11Z</time>
      </trkpt>
      <trkpt lat="42.83105" lon="0.23309">
        <ele>2188</ele>
        <time>2022-07-25T11:06:11Z</time>
      </trkpt>
      <trkpt lat="42.83125" lon="0.2336">
        <ele>2195</ele>
        <time>2022-07-25T11:06:11Z</time>
      </trkpt>
      <trkpt lat="42.83136" lon="0.23395">
        <ele>2199</ele>
        <time>2022-07-25T11:06:11Z</time>
      </trkpt>
      <trkpt lat="42.83143" lon="0.23407">
        <ele>2201</ele>
        <time>2022-07-25T11:06:11Z</time>
      </trkpt>
      <trkpt lat="42.83158" lon="0.23421">
        <ele>2203</ele>
        <time>2022-07-25T11:06:11Z</time>
      </trkpt>
      <trkpt lat="42.8317" lon="0.23442">
        <ele>2206</ele>
        <time>2022-07-25T11:06:11Z</time>
      </trkpt>
      <trkpt lat="42.83197" lon="0.23472">
        <ele>2210</ele>
        <time>2022-07-25T11:06:11Z</time>
      </trkpt>
      <trkpt lat="42.83236" lon="0.23536">
        <ele>2214</ele>
        <time>2022-07-25T11:06:11Z</time>
      </trkpt>
      <trkpt lat="42.83243" lon="0.23541">
        <ele>2213</ele>
        <time>2022-07-25T11:06:11Z</time>
      </trkpt>
      <trkpt lat="42.83277" lon="0.23595">
        <ele>2209</ele>
        <time>2022-07-25T11:06:11Z</time>
      </trkpt>
      <trkpt lat="42.83311" lon="0.23649">
        <ele>2206</ele>
        <time>2022-07-25T11:06:11Z</time>
      </trkpt>
      <trkpt lat="42.83353" lon="0.23666">
        <ele>2204</ele>
        <time>2022-07-25T11:06:11Z</time>
      </trkpt>
      <trkpt lat="42.83419" lon="0.23687">
        <ele>2200</ele>
        <time>2022-07-25T11:06:11Z</time>
      </trkpt>
      <trkpt lat="42.83442" lon="0.23692">
        <ele>2199</ele>
        <time>2022-07-25T11:06:11Z</time>
      </trkpt>
      <trkpt lat="42.83458" lon="0.237">
        <ele>2198</ele>
        <time>2022-07-25T11:06:11Z</time>
      </trkpt>
      <trkpt lat="42.83473" lon="0.23715">
        <ele>2195</ele>
        <time>2022-07-25T11:06:11Z</time>
      </trkpt>
      <trkpt lat="42.83484" lon="0.23717">
        <ele>2195</ele>
        <time>2022-07-25T11:06:11Z</time>
      </trkpt>
      <trkpt lat="42.83516" lon="0.23737">
        <ele>2192</ele>
        <time>2022-07-25T11:06:11Z</time>
      </trkpt>
      <trkpt lat="42.83531" lon="0.23752">
        <ele>2189</ele>
        <time>2022-07-25T11:06:11Z</time>
      </trkpt>
      <trkpt lat="42.83547" lon="0.23773">
        <ele>2187</ele>
        <time>2022-07-25T11:06:11Z</time>
      </trkpt>
      <trkpt lat="42.83552" lon="0.23776">
        <ele>2186</ele>
        <time>2022-07-25T11:06:11Z</time>
      </trkpt>
      <trkpt lat="42.83563" lon="0.23793">
        <ele>2184</ele>
        <time>2022-07-25T11:06:11Z</time>
      </trkpt>
      <trkpt lat="42.83567" lon="0.23805">
        <ele>2182</ele>
        <time>2022-07-25T11:06:11Z</time>
      </trkpt>
      <trkpt lat="42.83568" lon="0.23817">
        <ele>2180</ele>
        <time>2022-07-25T11:06:11Z</time>
      </trkpt>
      <trkpt lat="42.83572" lon="0.23827">
        <ele>2179</ele>
        <time>2022-07-25T11:06:11Z</time>
      </trkpt>
      <trkpt lat="42.83573" lon="0.23871">
        <ele>2171</ele>
        <time>2022-07-25T11:06:11Z</time>
      </trkpt>
      <trkpt lat="42.83572" lon="0.23882">
        <ele>2169</ele>
        <time>2022-07-25T11:06:11Z</time>
      </trkpt>
      <trkpt lat="42.83569" lon="0.23887">
        <ele>2167</ele>
        <time>2022-07-25T11:06:11Z</time>
      </trkpt>
      <trkpt lat="42.83568" lon="0.23916">
        <ele>2162</ele>
        <time>2022-07-25T11:06:11Z</time>
      </trkpt>
      <trkpt lat="42.83571" lon="0.23969">
        <ele>2155</ele>
        <time>2022-07-25T11:06:11Z</time>
      </trkpt>
      <trkpt lat="42.83579" lon="0.24028">
        <ele>2150</ele>
        <time>2022-07-25T11:06:11Z</time>
      </trkpt>
      <trkpt lat="42.83576" lon="0.24045">
        <ele>2146</ele>
        <time>2022-07-25T11:06:11Z</time>
      </trkpt>
      <trkpt lat="42.83576" lon="0.24118">
        <ele>2135</ele>
        <time>2022-07-25T11:06:11Z</time>
      </trkpt>
      <trkpt lat="42.83573" lon="0.24129">
        <ele>2132</ele>
        <time>2022-07-25T11:06:11Z</time>
      </trkpt>
      <trkpt lat="42.83572" lon="0.24163">
        <ele>2127</ele>
        <time>2022-07-25T11:06:11Z</time>
      </trkpt>
      <trkpt lat="42.83569" lon="0.2418">
        <ele>2123</ele>
        <time>2022-07-25T11:06:11Z</time>
      </trkpt>
      <trkpt lat="42.83569" lon="0.24179">
        <ele>2124</ele>
        <time>2022-07-25T11:06:11Z</time>
      </trkpt>
      <trkpt lat="42.8356" lon="0.24247">
        <ele>2111</ele>
        <time>2022-07-25T11:06:11Z</time>
      </trkpt>
      <trkpt lat="42.83553" lon="0.24276">
        <ele>2106</ele>
        <time>2022-07-25T11:06:11Z</time>
      </trkpt>
      <trkpt lat="42.83524" lon="0.24356">
        <ele>2089</ele>
        <time>2022-07-25T11:06:11Z</time>
      </trkpt>
      <trkpt lat="42.83511" lon="0.24399">
        <ele>2081</ele>
        <time>2022-07-25T11:06:11Z</time>
      </trkpt>
      <trkpt lat="42.83507" lon="0.24406">
        <ele>2079</ele>
        <time>2022-07-25T11:06:11Z</time>
      </trkpt>
      <trkpt lat="42.83488" lon="0.2446">
        <ele>2068</ele>
        <time>2022-07-25T11:06:11Z</time>
      </trkpt>
      <trkpt lat="42.83474" lon="0.2455">
        <ele>2056</ele>
        <time>2022-07-25T11:06:11Z</time>
      </trkpt>
      <trkpt lat="42.83472" lon="0.2458">
        <ele>2052</ele>
        <time>2022-07-25T11:06:11Z</time>
      </trkpt>
      <trkpt lat="42.83477" lon="0.24617">
        <ele>2051</ele>
        <time>2022-07-25T11:06:11Z</time>
      </trkpt>
      <trkpt lat="42.83475" lon="0.24649">
        <ele>2047</ele>
        <time>2022-07-25T11:06:11Z</time>
      </trkpt>
      <trkpt lat="42.8347" lon="0.24678">
        <ele>2043</ele>
        <time>2022-07-25T11:06:11Z</time>
      </trkpt>
      <trkpt lat="42.83469" lon="0.24697">
        <ele>2041</ele>
        <time>2022-07-25T11:06:11Z</time>
      </trkpt>
      <trkpt lat="42.83472" lon="0.24714">
        <ele>2041</ele>
        <time>2022-07-25T11:06:11Z</time>
      </trkpt>
      <trkpt lat="42.83478" lon="0.24724">
        <ele>2043</ele>
        <time>2022-07-25T11:06:11Z</time>
      </trkpt>
      <trkpt lat="42.83496" lon="0.24732">
        <ele>2050</ele>
        <time>2022-07-25T11:06:11Z</time>
      </trkpt>
      <trkpt lat="42.83499" lon="0.24735">
        <ele>2051</ele>
        <time>2022-07-25T11:06:11Z</time>
      </trkpt>
      <trkpt lat="42.83502" lon="0.24744">
        <ele>2051</ele>
        <time>2022-07-25T11:06:11Z</time>
      </trkpt>
      <trkpt lat="42.83496" lon="0.24772">
        <ele>2046</ele>
        <time>2022-07-25T11:06:11Z</time>
      </trkpt>
      <trkpt lat="42.83499" lon="0.24782">
        <ele>2047</ele>
        <time>2022-07-25T11:06:11Z</time>
      </trkpt>
      <trkpt lat="42.83499" lon="0.24791">
        <ele>2046</ele>
        <time>2022-07-25T11:06:11Z</time>
      </trkpt>
      <trkpt lat="42.83494" lon="0.24829">
        <ele>2043</ele>
        <time>2022-07-25T11:06:11Z</time>
      </trkpt>
      <trkpt lat="42.83489" lon="0.24847">
        <ele>2042</ele>
        <time>2022-07-25T11:06:11Z</time>
      </trkpt>
      <trkpt lat="42.83486" lon="0.24852">
        <ele>2041</ele>
        <time>2022-07-25T11:06:11Z</time>
      </trkpt>
      <trkpt lat="42.83482" lon="0.24884">
        <ele>2040</ele>
        <time>2022-07-25T11:06:11Z</time>
      </trkpt>
      <trkpt lat="42.83475" lon="0.24908">
        <ele>2039</ele>
        <time>2022-07-25T11:06:11Z</time>
      </trkpt>
      <trkpt lat="42.8347" lon="0.24939">
        <ele>2040</ele>
        <time>2022-07-25T11:06:11Z</time>
      </trkpt>
      <trkpt lat="42.83466" lon="0.24983">
        <ele>2041</ele>
        <time>2022-07-25T11:06:11Z</time>
      </trkpt>
      <trkpt lat="42.83462" lon="0.24999">
        <ele>2041</ele>
        <time>2022-07-25T11:06:11Z</time>
      </trkpt>
      <trkpt lat="42.83449" lon="0.2503">
        <ele>2037</ele>
        <time>2022-07-25T11:06:11Z</time>
      </trkpt>
      <trkpt lat="42.83419" lon="0.25082">
        <ele>2029</ele>
        <time>2022-07-25T11:06:11Z</time>
      </trkpt>
      <trkpt lat="42.83403" lon="0.25126">
        <ele>2026</ele>
        <time>2022-07-25T11:06:11Z</time>
      </trkpt>
      <trkpt lat="42.83396" lon="0.25157">
        <ele>2026</ele>
        <time>2022-07-25T11:06:11Z</time>
      </trkpt>
      <trkpt lat="42.83363" lon="0.25235">
        <ele>2016</ele>
        <time>2022-07-25T11:06:11Z</time>
      </trkpt>
      <trkpt lat="42.83349" lon="0.25263">
        <ele>2012</ele>
        <time>2022-07-25T11:06:11Z</time>
      </trkpt>
      <trkpt lat="42.83345" lon="0.25284">
        <ele>2011</ele>
        <time>2022-07-25T11:06:11Z</time>
      </trkpt>
      <trkpt lat="42.8334" lon="0.2533">
        <ele>2012</ele>
        <time>2022-07-25T11:06:11Z</time>
      </trkpt>
      <trkpt lat="42.83344" lon="0.25351">
        <ele>2015</ele>
        <time>2022-07-25T11:06:11Z</time>
      </trkpt>
      <trkpt lat="42.83342" lon="0.2537">
        <ele>2015</ele>
        <time>2022-07-25T11:06:11Z</time>
      </trkpt>
      <trkpt lat="42.83341" lon="0.25419">
        <ele>2018</ele>
        <time>2022-07-25T11:06:11Z</time>
      </trkpt>
      <trkpt lat="42.83332" lon="0.25478">
        <ele>2017</ele>
        <time>2022-07-25T11:06:11Z</time>
      </trkpt>
      <trkpt lat="42.83326" lon="0.2549">
        <ele>2014</ele>
        <time>2022-07-25T11:06:11Z</time>
      </trkpt>
      <trkpt lat="42.83324" lon="0.25502">
        <ele>2013</ele>
        <time>2022-07-25T11:06:11Z</time>
      </trkpt>
      <trkpt lat="42.83311" lon="0.25604">
        <ele>2002</ele>
        <time>2022-07-25T11:06:11Z</time>
      </trkpt>
      <trkpt lat="42.83311" lon="0.25629">
        <ele>2000</ele>
        <time>2022-07-25T11:06:11Z</time>
      </trkpt>
      <trkpt lat="42.83315" lon="0.25678">
        <ele>1996</ele>
        <time>2022-07-25T11:06:11Z</time>
      </trkpt>
      <trkpt lat="42.8332" lon="0.25704">
        <ele>1995</ele>
        <time>2022-07-25T11:06:11Z</time>
      </trkpt>
      <trkpt lat="42.83321" lon="0.25719">
        <ele>1994</ele>
        <time>2022-07-25T11:06:11Z</time>
      </trkpt>
      <trkpt lat="42.83325" lon="0.2573">
        <ele>1994</ele>
        <time>2022-07-25T11:06:11Z</time>
      </trkpt>
      <trkpt lat="42.83349" lon="0.25766">
        <ele>1997</ele>
        <time>2022-07-25T11:06:11Z</time>
      </trkpt>
      <trkpt lat="42.83357" lon="0.258">
        <ele>1995</ele>
        <time>2022-07-25T11:06:11Z</time>
      </trkpt>
      <trkpt lat="42.8337" lon="0.25891">
        <ele>1990</ele>
        <time>2022-07-25T11:06:11Z</time>
      </trkpt>
      <trkpt lat="42.83385" lon="0.25954">
        <ele>1990</ele>
        <time>2022-07-25T11:06:11Z</time>
      </trkpt>
      <trkpt lat="42.834" lon="0.26016">
        <ele>1990</ele>
        <time>2022-07-25T11:06:11Z</time>
      </trkpt>
      <trkpt lat="42.83414" lon="0.26088">
        <ele>1989</ele>
        <time>2022-07-25T11:06:11Z</time>
      </trkpt>
      <trkpt lat="42.83428" lon="0.26159">
        <ele>1989</ele>
        <time>2022-07-25T11:06:11Z</time>
      </trkpt>
      <trkpt lat="42.83437" lon="0.26268">
        <ele>1985</ele>
        <time>2022-07-25T11:06:11Z</time>
      </trkpt>
      <trkpt lat="42.83441" lon="0.26377">
        <ele>1980</ele>
        <time>2022-07-25T11:06:11Z</time>
      </trkpt>
      <trkpt lat="42.83452" lon="0.26478">
        <ele>1977</ele>
        <time>2022-07-25T11:06:11Z</time>
      </trkpt>
      <trkpt lat="42.83457" lon="0.2658">
        <ele>1973</ele>
        <time>2022-07-25T11:06:11Z</time>
      </trkpt>
      <trkpt lat="42.83469" lon="0.26687">
        <ele>1969</ele>
        <time>2022-07-25T11:06:11Z</time>
      </trkpt>
      <trkpt lat="42.83469" lon="0.267">
        <ele>1967</ele>
        <time>2022-07-25T11:06:11Z</time>
      </trkpt>
      <trkpt lat="42.83457" lon="0.26771">
        <ele>1956</ele>
        <time>2022-07-25T11:06:11Z</time>
      </trkpt>
      <trkpt lat="42.83456" lon="0.26792">
        <ele>1953</ele>
        <time>2022-07-25T11:06:11Z</time>
      </trkpt>
      <trkpt lat="42.83459" lon="0.26838">
        <ele>1948</ele>
        <time>2022-07-25T11:06:11Z</time>
      </trkpt>
      <trkpt lat="42.83465" lon="0.26853">
        <ele>1949</ele>
        <time>2022-07-25T11:06:11Z</time>
      </trkpt>
      <trkpt lat="42.83471" lon="0.26903">
        <ele>1947</ele>
        <time>2022-07-25T11:06:11Z</time>
      </trkpt>
      <trkpt lat="42.8347" lon="0.26913">
        <ele>1946</ele>
        <time>2022-07-25T11:06:11Z</time>
      </trkpt>
      <trkpt lat="42.8346" lon="0.26958">
        <ele>1937</ele>
        <time>2022-07-25T11:06:11Z</time>
      </trkpt>
      <trkpt lat="42.83452" lon="0.2701">
        <ele>1930</ele>
        <time>2022-07-25T11:06:11Z</time>
      </trkpt>
      <trkpt lat="42.83439" lon="0.27064">
        <ele>1921</ele>
        <time>2022-07-25T11:06:11Z</time>
      </trkpt>
      <trkpt lat="42.83437" lon="0.27078">
        <ele>1919</ele>
        <time>2022-07-25T11:06:11Z</time>
      </trkpt>
      <trkpt lat="42.83438" lon="0.27091">
        <ele>1919</ele>
        <time>2022-07-25T11:06:11Z</time>
      </trkpt>
      <trkpt lat="42.83452" lon="0.27161">
        <ele>1925</ele>
        <time>2022-07-25T11:06:11Z</time>
      </trkpt>
      <trkpt lat="42.83454" lon="0.27212">
        <ele>1925</ele>
        <time>2022-07-25T11:06:11Z</time>
      </trkpt>
      <trkpt lat="42.83458" lon="0.27232">
        <ele>1927</ele>
        <time>2022-07-25T11:06:11Z</time>
      </trkpt>
      <trkpt lat="42.83455" lon="0.27251">
        <ele>1924</ele>
        <time>2022-07-25T11:06:11Z</time>
      </trkpt>
      <trkpt lat="42.83418" lon="0.2732">
        <ele>1901</ele>
        <time>2022-07-25T11:06:11Z</time>
      </trkpt>
      <trkpt lat="42.83405" lon="0.27367">
        <ele>1891</ele>
        <time>2022-07-25T11:06:11Z</time>
      </trkpt>
      <trkpt lat="42.83405" lon="0.27379">
        <ele>1890</ele>
        <time>2022-07-25T11:06:11Z</time>
      </trkpt>
      <trkpt lat="42.83416" lon="0.27429">
        <ele>1892</ele>
        <time>2022-07-25T11:06:11Z</time>
      </trkpt>
      <trkpt lat="42.83429" lon="0.27472">
        <ele>1895</ele>
        <time>2022-07-25T11:06:11Z</time>
      </trkpt>
      <trkpt lat="42.83444" lon="0.27532">
        <ele>1892</ele>
        <time>2022-07-25T11:06:11Z</time>
      </trkpt>
      <trkpt lat="42.83465" lon="0.27592">
        <ele>1896</ele>
        <time>2022-07-25T11:06:11Z</time>
      </trkpt>
      <trkpt lat="42.83473" lon="0.27634">
        <ele>1897</ele>
        <time>2022-07-25T11:06:11Z</time>
      </trkpt>
      <trkpt lat="42.83483" lon="0.27709">
        <ele>1899</ele>
        <time>2022-07-25T11:06:11Z</time>
      </trkpt>
      <trkpt lat="42.83493" lon="0.27784">
        <ele>1902</ele>
        <time>2022-07-25T11:06:11Z</time>
      </trkpt>
      <trkpt lat="42.83508" lon="0.27866">
        <ele>1906</ele>
        <time>2022-07-25T11:06:11Z</time>
      </trkpt>
      <trkpt lat="42.83519" lon="0.27958">
        <ele>1895</ele>
        <time>2022-07-25T11:06:11Z</time>
      </trkpt>
      <trkpt lat="42.83538" lon="0.28077">
        <ele>1872</ele>
        <time>2022-07-25T11:06:11Z</time>
      </trkpt>
      <trkpt lat="42.83546" lon="0.2811">
        <ele>1867</ele>
        <time>2022-07-25T11:06:11Z</time>
      </trkpt>
      <trkpt lat="42.83577" lon="0.28188">
        <ele>1864</ele>
        <time>2022-07-25T11:06:11Z</time>
      </trkpt>
      <trkpt lat="42.83609" lon="0.28259">
        <ele>1859</ele>
        <time>2022-07-25T11:06:11Z</time>
      </trkpt>
      <trkpt lat="42.83641" lon="0.28329">
        <ele>1848</ele>
        <time>2022-07-25T11:06:11Z</time>
      </trkpt>
      <trkpt lat="42.83677" lon="0.28423">
        <ele>1832</ele>
        <time>2022-07-25T11:06:11Z</time>
      </trkpt>
      <trkpt lat="42.83703" lon="0.28472">
        <ele>1819</ele>
        <time>2022-07-25T11:06:11Z</time>
      </trkpt>
      <trkpt lat="42.83727" lon="0.28539">
        <ele>1804</ele>
        <time>2022-07-25T11:06:11Z</time>
      </trkpt>
      <trkpt lat="42.83751" lon="0.28606">
        <ele>1791</ele>
        <time>2022-07-25T11:06:11Z</time>
      </trkpt>
      <trkpt lat="42.83765" lon="0.2863">
        <ele>1786</ele>
        <time>2022-07-25T11:06:11Z</time>
      </trkpt>
      <trkpt lat="42.83782" lon="0.28676">
        <ele>1774</ele>
        <time>2022-07-25T11:06:11Z</time>
      </trkpt>
      <trkpt lat="42.83784" lon="0.28699">
        <ele>1770</ele>
        <time>2022-07-25T11:06:11Z</time>
      </trkpt>
      <trkpt lat="42.83795" lon="0.28749">
        <ele>1758</ele>
        <time>2022-07-25T11:06:11Z</time>
      </trkpt>
      <trkpt lat="42.83803" lon="0.2883">
        <ele>1739</ele>
        <time>2022-07-25T11:06:11Z</time>
      </trkpt>
      <trkpt lat="42.83805" lon="0.28834">
        <ele>1738</ele>
        <time>2022-07-25T11:06:11Z</time>
      </trkpt>
      <trkpt lat="42.83808" lon="0.28891">
        <ele>1723</ele>
        <time>2022-07-25T11:06:11Z</time>
      </trkpt>
      <trkpt lat="42.83806" lon="0.28909">
        <ele>1719</ele>
        <time>2022-07-25T11:06:11Z</time>
      </trkpt>
      <trkpt lat="42.83809" lon="0.28945">
        <ele>1709</ele>
        <time>2022-07-25T11:06:11Z</time>
      </trkpt>
      <trkpt lat="42.83795" lon="0.28995">
        <ele>1698</ele>
        <time>2022-07-25T11:06:11Z</time>
      </trkpt>
      <trkpt lat="42.83793" lon="0.28997">
        <ele>1698</ele>
        <time>2022-07-25T11:06:11Z</time>
      </trkpt>
      <trkpt lat="42.83793" lon="0.29003">
        <ele>1696</ele>
        <time>2022-07-25T11:06:11Z</time>
      </trkpt>
      <trkpt lat="42.83782" lon="0.29046">
        <ele>1687</ele>
        <time>2022-07-25T11:06:11Z</time>
      </trkpt>
      <trkpt lat="42.83778" lon="0.29071">
        <ele>1682</ele>
        <time>2022-07-25T11:06:11Z</time>
      </trkpt>
      <trkpt lat="42.83777" lon="0.29111">
        <ele>1676</ele>
        <time>2022-07-25T11:06:11Z</time>
      </trkpt>
      <trkpt lat="42.8378" lon="0.29157">
        <ele>1669</ele>
        <time>2022-07-25T11:06:11Z</time>
      </trkpt>
      <trkpt lat="42.83779" lon="0.2919">
        <ele>1665</ele>
        <time>2022-07-25T11:06:11Z</time>
      </trkpt>
      <trkpt lat="42.83784" lon="0.29217">
        <ele>1662</ele>
        <time>2022-07-25T11:06:11Z</time>
      </trkpt>
      <trkpt lat="42.83804" lon="0.29278">
        <ele>1657</ele>
        <time>2022-07-25T11:06:11Z</time>
      </trkpt>
      <trkpt lat="42.83811" lon="0.29316">
        <ele>1654</ele>
        <time>2022-07-25T11:06:11Z</time>
      </trkpt>
      <trkpt lat="42.83813" lon="0.29341">
        <ele>1651</ele>
        <time>2022-07-25T11:06:11Z</time>
      </trkpt>
      <trkpt lat="42.83825" lon="0.29379">
        <ele>1648</ele>
        <time>2022-07-25T11:06:11Z</time>
      </trkpt>
      <trkpt lat="42.8383" lon="0.2942">
        <ele>1644</ele>
        <time>2022-07-25T11:06:11Z</time>
      </trkpt>
      <trkpt lat="42.83834" lon="0.29437">
        <ele>1643</ele>
        <time>2022-07-25T11:06:11Z</time>
      </trkpt>
      <trkpt lat="42.83839" lon="0.29451">
        <ele>1642</ele>
        <time>2022-07-25T11:06:11Z</time>
      </trkpt>
      <trkpt lat="42.83837" lon="0.2948">
        <ele>1639</ele>
        <time>2022-07-25T11:06:11Z</time>
      </trkpt>
      <trkpt lat="42.8384" lon="0.29502">
        <ele>1636</ele>
        <time>2022-07-25T11:06:11Z</time>
      </trkpt>
      <trkpt lat="42.83855" lon="0.2956">
        <ele>1628</ele>
        <time>2022-07-25T11:06:11Z</time>
      </trkpt>
      <trkpt lat="42.83877" lon="0.29612">
        <ele>1620</ele>
        <time>2022-07-25T11:06:11Z</time>
      </trkpt>
      <trkpt lat="42.83879" lon="0.29648">
        <ele>1617</ele>
        <time>2022-07-25T11:06:11Z</time>
      </trkpt>
      <trkpt lat="42.83877" lon="0.29682">
        <ele>1617</ele>
        <time>2022-07-25T11:06:11Z</time>
      </trkpt>
      <trkpt lat="42.83872" lon="0.29705">
        <ele>1616</ele>
        <time>2022-07-25T11:06:11Z</time>
      </trkpt>
      <trkpt lat="42.8385" lon="0.29765">
        <ele>1615</ele>
        <time>2022-07-25T11:06:11Z</time>
      </trkpt>
      <trkpt lat="42.83842" lon="0.29776">
        <ele>1614</ele>
        <time>2022-07-25T11:06:11Z</time>
      </trkpt>
      <trkpt lat="42.83836" lon="0.29791">
        <ele>1612</ele>
        <time>2022-07-25T11:06:11Z</time>
      </trkpt>
      <trkpt lat="42.8383" lon="0.29803">
        <ele>1610</ele>
        <time>2022-07-25T11:06:11Z</time>
      </trkpt>
      <trkpt lat="42.83823" lon="0.29834">
        <ele>1606</ele>
        <time>2022-07-25T11:06:11Z</time>
      </trkpt>
      <trkpt lat="42.83825" lon="0.29872">
        <ele>1605</ele>
        <time>2022-07-25T11:06:11Z</time>
      </trkpt>
      <trkpt lat="42.83812" lon="0.29894">
        <ele>1600</ele>
        <time>2022-07-25T11:06:11Z</time>
      </trkpt>
      <trkpt lat="42.83794" lon="0.2991">
        <ele>1593</ele>
        <time>2022-07-25T11:06:11Z</time>
      </trkpt>
      <trkpt lat="42.83785" lon="0.29909">
        <ele>1590</ele>
        <time>2022-07-25T11:06:11Z</time>
      </trkpt>
      <trkpt lat="42.83779" lon="0.29911">
        <ele>1588</ele>
        <time>2022-07-25T11:06:11Z</time>
      </trkpt>
      <trkpt lat="42.83775" lon="0.29909">
        <ele>1586</ele>
        <time>2022-07-25T11:06:11Z</time>
      </trkpt>
      <trkpt lat="42.83773" lon="0.2991">
        <ele>1586</ele>
        <time>2022-07-25T11:06:11Z</time>
      </trkpt>
      <trkpt lat="42.83765" lon="0.29926">
        <ele>1581</ele>
        <time>2022-07-25T11:06:11Z</time>
      </trkpt>
      <trkpt lat="42.83763" lon="0.2995">
        <ele>1578</ele>
        <time>2022-07-25T11:06:11Z</time>
      </trkpt>
      <trkpt lat="42.83765" lon="0.29964">
        <ele>1578</ele>
        <time>2022-07-25T11:06:11Z</time>
      </trkpt>
      <trkpt lat="42.8376" lon="0.2998">
        <ele>1574</ele>
        <time>2022-07-25T11:06:11Z</time>
      </trkpt>
      <trkpt lat="42.83758" lon="0.30019">
        <ele>1572</ele>
        <time>2022-07-25T11:06:11Z</time>
      </trkpt>
      <trkpt lat="42.83751" lon="0.30045">
        <ele>1568</ele>
        <time>2022-07-25T11:06:11Z</time>
      </trkpt>
      <trkpt lat="42.83743" lon="0.30086">
        <ele>1564</ele>
        <time>2022-07-25T11:06:11Z</time>
      </trkpt>
      <trkpt lat="42.83732" lon="0.30082">
        <ele>1558</ele>
        <time>2022-07-25T11:06:11Z</time>
      </trkpt>
      <trkpt lat="42.8371" lon="0.30068">
        <ele>1546</ele>
        <time>2022-07-25T11:06:11Z</time>
      </trkpt>
      <trkpt lat="42.83708" lon="0.30069">
        <ele>1545</ele>
        <time>2022-07-25T11:06:11Z</time>
      </trkpt>
      <trkpt lat="42.83702" lon="0.30067">
        <ele>1542</ele>
        <time>2022-07-25T11:06:11Z</time>
      </trkpt>
      <trkpt lat="42.83696" lon="0.30057">
        <ele>1538</ele>
        <time>2022-07-25T11:06:11Z</time>
      </trkpt>
      <trkpt lat="42.83689" lon="0.30054">
        <ele>1535</ele>
        <time>2022-07-25T11:06:11Z</time>
      </trkpt>
      <trkpt lat="42.83684" lon="0.30042">
        <ele>1533</ele>
        <time>2022-07-25T11:06:11Z</time>
      </trkpt>
      <trkpt lat="42.83678" lon="0.30032">
        <ele>1530</ele>
        <time>2022-07-25T11:06:11Z</time>
      </trkpt>
      <trkpt lat="42.83676" lon="0.30031">
        <ele>1529</ele>
        <time>2022-07-25T11:06:11Z</time>
      </trkpt>
      <trkpt lat="42.83662" lon="0.3005">
        <ele>1521</ele>
        <time>2022-07-25T11:06:11Z</time>
      </trkpt>
      <trkpt lat="42.83655" lon="0.30064">
        <ele>1517</ele>
        <time>2022-07-25T11:06:11Z</time>
      </trkpt>
      <trkpt lat="42.8365" lon="0.30068">
        <ele>1515</ele>
        <time>2022-07-25T11:06:11Z</time>
      </trkpt>
      <trkpt lat="42.83649" lon="0.30067">
        <ele>1514</ele>
        <time>2022-07-25T11:06:11Z</time>
      </trkpt>
      <trkpt lat="42.83627" lon="0.30008">
        <ele>1505</ele>
        <time>2022-07-25T11:06:11Z</time>
      </trkpt>
      <trkpt lat="42.8362" lon="0.29995">
        <ele>1502</ele>
        <time>2022-07-25T11:06:11Z</time>
      </trkpt>
      <trkpt lat="42.83581" lon="0.29943">
        <ele>1486</ele>
        <time>2022-07-25T11:06:11Z</time>
      </trkpt>
      <trkpt lat="42.83575" lon="0.2992">
        <ele>1485</ele>
        <time>2022-07-25T11:06:11Z</time>
      </trkpt>
      <trkpt lat="42.83571" lon="0.29892">
        <ele>1486</ele>
        <time>2022-07-25T11:06:11Z</time>
      </trkpt>
      <trkpt lat="42.83556" lon="0.2984">
        <ele>1486</ele>
        <time>2022-07-25T11:06:11Z</time>
      </trkpt>
      <trkpt lat="42.83555" lon="0.29825">
        <ele>1487</ele>
        <time>2022-07-25T11:06:11Z</time>
      </trkpt>
      <trkpt lat="42.83549" lon="0.2983">
        <ele>1484</ele>
        <time>2022-07-25T11:06:11Z</time>
      </trkpt>
      <trkpt lat="42.83505" lon="0.29817">
        <ele>1469</ele>
        <time>2022-07-25T11:06:11Z</time>
      </trkpt>
      <trkpt lat="42.83461" lon="0.29803">
        <ele>1455</ele>
        <time>2022-07-25T11:06:11Z</time>
      </trkpt>
      <trkpt lat="42.83443" lon="0.29792">
        <ele>1450</ele>
        <time>2022-07-25T11:06:11Z</time>
      </trkpt>
      <trkpt lat="42.83409" lon="0.29767">
        <ele>1439</ele>
        <time>2022-07-25T11:06:11Z</time>
      </trkpt>
      <trkpt lat="42.83406" lon="0.29766">
        <ele>1437</ele>
        <time>2022-07-25T11:06:11Z</time>
      </trkpt>
      <trkpt lat="42.83404" lon="0.29766">
        <ele>1437</ele>
        <time>2022-07-25T11:06:11Z</time>
      </trkpt>
      <trkpt lat="42.83392" lon="0.29764">
        <ele>1431</ele>
        <time>2022-07-25T11:06:11Z</time>
      </trkpt>
      <trkpt lat="42.83371" lon="0.29763">
        <ele>1422</ele>
        <time>2022-07-25T11:06:11Z</time>
      </trkpt>
      <trkpt lat="42.8335" lon="0.29754">
        <ele>1413</ele>
        <time>2022-07-25T11:06:11Z</time>
      </trkpt>
      <trkpt lat="42.83342" lon="0.29747">
        <ele>1410</ele>
        <time>2022-07-25T11:06:11Z</time>
      </trkpt>
      <trkpt lat="42.83335" lon="0.29745">
        <ele>1407</ele>
        <time>2022-07-25T11:06:11Z</time>
      </trkpt>
      <trkpt lat="42.83329" lon="0.29741">
        <ele>1405</ele>
        <time>2022-07-25T11:06:11Z</time>
      </trkpt>
      <trkpt lat="42.83282" lon="0.29689">
        <ele>1388</ele>
        <time>2022-07-25T11:06:11Z</time>
      </trkpt>
      <trkpt lat="42.83276" lon="0.29678">
        <ele>1386</ele>
        <time>2022-07-25T11:06:11Z</time>
      </trkpt>
      <trkpt lat="42.83262" lon="0.29612">
        <ele>1384</ele>
        <time>2022-07-25T11:06:11Z</time>
      </trkpt>
      <trkpt lat="42.83252" lon="0.29571">
        <ele>1381</ele>
        <time>2022-07-25T11:06:11Z</time>
      </trkpt>
      <trkpt lat="42.83241" lon="0.29542">
        <ele>1377</ele>
        <time>2022-07-25T11:06:11Z</time>
      </trkpt>
      <trkpt lat="42.83231" lon="0.29466">
        <ele>1380</ele>
        <time>2022-07-25T11:06:11Z</time>
      </trkpt>
      <trkpt lat="42.83231" lon="0.29444">
        <ele>1384</ele>
        <time>2022-07-25T11:06:11Z</time>
      </trkpt>
      <trkpt lat="42.83226" lon="0.29434">
        <ele>1384</ele>
        <time>2022-07-25T11:06:11Z</time>
      </trkpt>
      <trkpt lat="42.83154" lon="0.29422">
        <ele>1358</ele>
        <time>2022-07-25T11:06:11Z</time>
      </trkpt>
      <trkpt lat="42.83125" lon="0.29428">
        <ele>1343</ele>
        <time>2022-07-25T11:06:11Z</time>
      </trkpt>
      <trkpt lat="42.8311" lon="0.29432">
        <ele>1334</ele>
        <time>2022-07-25T11:06:11Z</time>
      </trkpt>
      <trkpt lat="42.83102" lon="0.29425">
        <ele>1333</ele>
        <time>2022-07-25T11:06:11Z</time>
      </trkpt>
      <trkpt lat="42.83068" lon="0.29419">
        <ele>1323</ele>
        <time>2022-07-25T11:06:11Z</time>
      </trkpt>
      <trkpt lat="42.83061" lon="0.29426">
        <ele>1317</ele>
        <time>2022-07-25T11:06:11Z</time>
      </trkpt>
      <trkpt lat="42.83045" lon="0.29425">
        <ele>1312</ele>
        <time>2022-07-25T11:06:11Z</time>
      </trkpt>
      <trkpt lat="42.83043" lon="0.29428">
        <ele>1310</ele>
        <time>2022-07-25T11:06:11Z</time>
      </trkpt>
      <trkpt lat="42.83057" lon="0.29441">
        <ele>1310</ele>
        <time>2022-07-25T11:06:11Z</time>
      </trkpt>
      <trkpt lat="42.83065" lon="0.29454">
        <ele>1307</ele>
        <time>2022-07-25T11:06:11Z</time>
      </trkpt>
      <trkpt lat="42.83079" lon="0.29468">
        <ele>1305</ele>
        <time>2022-07-25T11:06:11Z</time>
      </trkpt>
      <trkpt lat="42.8309" lon="0.29489">
        <ele>1301</ele>
        <time>2022-07-25T11:06:11Z</time>
      </trkpt>
      <trkpt lat="42.8309" lon="0.29497">
        <ele>1300</ele>
        <time>2022-07-25T11:06:11Z</time>
      </trkpt>
      <trkpt lat="42.83094" lon="0.2951">
        <ele>1299</ele>
        <time>2022-07-25T11:06:11Z</time>
      </trkpt>
      <trkpt lat="42.8309" lon="0.29536">
        <ele>1294</ele>
        <time>2022-07-25T11:06:11Z</time>
      </trkpt>
      <trkpt lat="42.83094" lon="0.29602">
        <ele>1287</ele>
        <time>2022-07-25T11:06:11Z</time>
      </trkpt>
      <trkpt lat="42.83097" lon="0.29668">
        <ele>1281</ele>
        <time>2022-07-25T11:06:11Z</time>
      </trkpt>
      <trkpt lat="42.83095" lon="0.29678">
        <ele>1279</ele>
        <time>2022-07-25T11:06:11Z</time>
      </trkpt>
      <trkpt lat="42.83087" lon="0.29693">
        <ele>1274</ele>
        <time>2022-07-25T11:06:11Z</time>
      </trkpt>
      <trkpt lat="42.83085" lon="0.29704">
        <ele>1272</ele>
        <time>2022-07-25T11:06:11Z</time>
      </trkpt>
      <trkpt lat="42.83084" lon="0.29742">
        <ele>1267</ele>
        <time>2022-07-25T11:06:11Z</time>
      </trkpt>
      <trkpt lat="42.8308" lon="0.29777">
        <ele>1261</ele>
        <time>2022-07-25T11:06:11Z</time>
      </trkpt>
      <trkpt lat="42.83079" lon="0.29895">
        <ele>1245</ele>
        <time>2022-07-25T11:06:11Z</time>
      </trkpt>
      <trkpt lat="42.83087" lon="0.2997">
        <ele>1240</ele>
        <time>2022-07-25T11:06:11Z</time>
      </trkpt>
      <trkpt lat="42.83095" lon="0.30045">
        <ele>1235</ele>
        <time>2022-07-25T11:06:11Z</time>
      </trkpt>
      <trkpt lat="42.83095" lon="0.30043">
        <ele>1236</ele>
        <time>2022-07-25T11:06:11Z</time>
      </trkpt>
      <trkpt lat="42.83099" lon="0.30097">
        <ele>1231</ele>
        <time>2022-07-25T11:06:11Z</time>
      </trkpt>
      <trkpt lat="42.83109" lon="0.30119">
        <ele>1235</ele>
        <time>2022-07-25T11:06:11Z</time>
      </trkpt>
      <trkpt lat="42.83119" lon="0.30157">
        <ele>1237</ele>
        <time>2022-07-25T11:06:11Z</time>
      </trkpt>
      <trkpt lat="42.83114" lon="0.30157">
        <ele>1233</ele>
        <time>2022-07-25T11:06:11Z</time>
      </trkpt>
      <trkpt lat="42.83102" lon="0.30126">
        <ele>1229</ele>
        <time>2022-07-25T11:06:11Z</time>
      </trkpt>
      <trkpt lat="42.83086" lon="0.30107">
        <ele>1223</ele>
        <time>2022-07-25T11:06:11Z</time>
      </trkpt>
      <trkpt lat="42.83072" lon="0.30085">
        <ele>1219</ele>
        <time>2022-07-25T11:06:11Z</time>
      </trkpt>
      <trkpt lat="42.8305" lon="0.30016">
        <ele>1216</ele>
        <time>2022-07-25T11:06:11Z</time>
      </trkpt>
      <trkpt lat="42.83026" lon="0.29953">
        <ele>1213</ele>
        <time>2022-07-25T11:06:11Z</time>
      </trkpt>
      <trkpt lat="42.8301" lon="0.2992">
        <ele>1210</ele>
        <time>2022-07-25T11:06:11Z</time>
      </trkpt>
      <trkpt lat="42.82993" lon="0.29846">
        <ele>1210</ele>
        <time>2022-07-25T11:06:11Z</time>
      </trkpt>
      <trkpt lat="42.82984" lon="0.29791">
        <ele>1212</ele>
        <time>2022-07-25T11:06:11Z</time>
      </trkpt>
      <trkpt lat="42.82981" lon="0.29788">
        <ele>1211</ele>
        <time>2022-07-25T11:06:11Z</time>
      </trkpt>
      <trkpt lat="42.82979" lon="0.29793">
        <ele>1208</ele>
        <time>2022-07-25T11:06:11Z</time>
      </trkpt>
      <trkpt lat="42.82979" lon="0.29816">
        <ele>1205</ele>
        <time>2022-07-25T11:06:11Z</time>
      </trkpt>
      <trkpt lat="42.8297" lon="0.29915">
        <ele>1187</ele>
        <time>2022-07-25T11:06:11Z</time>
      </trkpt>
      <trkpt lat="42.82973" lon="0.29935">
        <ele>1187</ele>
        <time>2022-07-25T11:06:11Z</time>
      </trkpt>
      <trkpt lat="42.82983" lon="0.2997">
        <ele>1188</ele>
        <time>2022-07-25T11:06:11Z</time>
      </trkpt>
      <trkpt lat="42.82984" lon="0.29991">
        <ele>1186</ele>
        <time>2022-07-25T11:06:11Z</time>
      </trkpt>
      <trkpt lat="42.82991" lon="0.30034">
        <ele>1184</ele>
        <time>2022-07-25T11:06:11Z</time>
      </trkpt>
      <trkpt lat="42.82993" lon="0.30101">
        <ele>1175</ele>
        <time>2022-07-25T11:06:11Z</time>
      </trkpt>
      <trkpt lat="42.82995" lon="0.30167">
        <ele>1166</ele>
        <time>2022-07-25T11:06:11Z</time>
      </trkpt>
      <trkpt lat="42.82999" lon="0.30195">
        <ele>1164</ele>
        <time>2022-07-25T11:06:11Z</time>
      </trkpt>
      <trkpt lat="42.82997" lon="0.30199">
        <ele>1162</ele>
        <time>2022-07-25T11:06:11Z</time>
      </trkpt>
      <trkpt lat="42.82994" lon="0.30198">
        <ele>1160</ele>
        <time>2022-07-25T11:06:11Z</time>
      </trkpt>
      <trkpt lat="42.82988" lon="0.30186">
        <ele>1159</ele>
        <time>2022-07-25T11:06:11Z</time>
      </trkpt>
      <trkpt lat="42.82968" lon="0.3013">
        <ele>1158</ele>
        <time>2022-07-25T11:06:11Z</time>
      </trkpt>
      <trkpt lat="42.82949" lon="0.30055">
        <ele>1158</ele>
        <time>2022-07-25T11:06:11Z</time>
      </trkpt>
      <trkpt lat="42.82913" lon="0.29972">
        <ele>1157</ele>
        <time>2022-07-25T11:06:11Z</time>
      </trkpt>
      <trkpt lat="42.82909" lon="0.29967">
        <ele>1157</ele>
        <time>2022-07-25T11:06:11Z</time>
      </trkpt>
      <trkpt lat="42.82906" lon="0.29973">
        <ele>1156</ele>
        <time>2022-07-25T11:06:11Z</time>
      </trkpt>
      <trkpt lat="42.82915" lon="0.30021">
        <ele>1151</ele>
        <time>2022-07-25T11:06:11Z</time>
      </trkpt>
      <trkpt lat="42.82918" lon="0.30067">
        <ele>1145</ele>
        <time>2022-07-25T11:06:11Z</time>
      </trkpt>
      <trkpt lat="42.82913" lon="0.30123">
        <ele>1137</ele>
        <time>2022-07-25T11:06:11Z</time>
      </trkpt>
      <trkpt lat="42.82905" lon="0.3018">
        <ele>1125</ele>
        <time>2022-07-25T11:06:11Z</time>
      </trkpt>
      <trkpt lat="42.82902" lon="0.30211">
        <ele>1119</ele>
        <time>2022-07-25T11:06:11Z</time>
      </trkpt>
      <trkpt lat="42.82903" lon="0.30217">
        <ele>1118</ele>
        <time>2022-07-25T11:06:11Z</time>
      </trkpt>
      <trkpt lat="42.82913" lon="0.3023">
        <ele>1117</ele>
        <time>2022-07-25T11:06:11Z</time>
      </trkpt>
      <trkpt lat="42.82915" lon="0.30243">
        <ele>1115</ele>
        <time>2022-07-25T11:06:11Z</time>
      </trkpt>
      <trkpt lat="42.82913" lon="0.30251">
        <ele>1113</ele>
        <time>2022-07-25T11:06:11Z</time>
      </trkpt>
      <trkpt lat="42.82905" lon="0.30262">
        <ele>1110</ele>
        <time>2022-07-25T11:06:11Z</time>
      </trkpt>
      <trkpt lat="42.82899" lon="0.30278">
        <ele>1106</ele>
        <time>2022-07-25T11:06:11Z</time>
      </trkpt>
      <trkpt lat="42.82894" lon="0.30302">
        <ele>1101</ele>
        <time>2022-07-25T11:06:11Z</time>
      </trkpt>
      <trkpt lat="42.82886" lon="0.30323">
        <ele>1097</ele>
        <time>2022-07-25T11:06:11Z</time>
      </trkpt>
      <trkpt lat="42.82884" lon="0.30333">
        <ele>1094</ele>
        <time>2022-07-25T11:06:11Z</time>
      </trkpt>
      <trkpt lat="42.82886" lon="0.30344">
        <ele>1093</ele>
        <time>2022-07-25T11:06:11Z</time>
      </trkpt>
      <trkpt lat="42.82896" lon="0.30356">
        <ele>1094</ele>
        <time>2022-07-25T11:06:11Z</time>
      </trkpt>
      <trkpt lat="42.82898" lon="0.30365">
        <ele>1093</ele>
        <time>2022-07-25T11:06:11Z</time>
      </trkpt>
      <trkpt lat="42.82894" lon="0.30373">
        <ele>1091</ele>
        <time>2022-07-25T11:06:11Z</time>
      </trkpt>
      <trkpt lat="42.82887" lon="0.30379">
        <ele>1088</ele>
        <time>2022-07-25T11:06:11Z</time>
      </trkpt>
      <trkpt lat="42.82878" lon="0.30378">
        <ele>1085</ele>
        <time>2022-07-25T11:06:11Z</time>
      </trkpt>
      <trkpt lat="42.82872" lon="0.3037">
        <ele>1085</ele>
        <time>2022-07-25T11:06:11Z</time>
      </trkpt>
      <trkpt lat="42.82864" lon="0.30336">
        <ele>1090</ele>
        <time>2022-07-25T11:06:11Z</time>
      </trkpt>
      <trkpt lat="42.82862" lon="0.30315">
        <ele>1093</ele>
        <time>2022-07-25T11:06:11Z</time>
      </trkpt>
      <trkpt lat="42.82856" lon="0.30309">
        <ele>1093</ele>
        <time>2022-07-25T11:06:11Z</time>
      </trkpt>
      <trkpt lat="42.82853" lon="0.30311">
        <ele>1092</ele>
        <time>2022-07-25T11:06:11Z</time>
      </trkpt>
      <trkpt lat="42.82845" lon="0.30323">
        <ele>1090</ele>
        <time>2022-07-25T11:06:11Z</time>
      </trkpt>
      <trkpt lat="42.82841" lon="0.30351">
        <ele>1085</ele>
        <time>2022-07-25T11:06:11Z</time>
      </trkpt>
      <trkpt lat="42.82809" lon="0.304">
        <ele>1084</ele>
        <time>2022-07-25T11:06:11Z</time>
      </trkpt>
      <trkpt lat="42.82803" lon="0.30415">
        <ele>1082</ele>
        <time>2022-07-25T11:06:11Z</time>
      </trkpt>
      <trkpt lat="42.82795" lon="0.3045">
        <ele>1075</ele>
        <time>2022-07-25T11:06:11Z</time>
      </trkpt>
      <trkpt lat="42.82796" lon="0.30492">
        <ele>1065</ele>
        <time>2022-07-25T11:06:11Z</time>
      </trkpt>
      <trkpt lat="42.82799" lon="0.30489">
        <ele>1065</ele>
        <time>2022-07-25T11:06:11Z</time>
      </trkpt>
      <trkpt lat="42.82811" lon="0.30506">
        <ele>1056</ele>
        <time>2022-07-25T11:06:11Z</time>
      </trkpt>
      <trkpt lat="42.82815" lon="0.30509">
        <ele>1054</ele>
        <time>2022-07-25T11:06:11Z</time>
      </trkpt>
      <trkpt lat="42.82817" lon="0.3052">
        <ele>1051</ele>
        <time>2022-07-25T11:06:11Z</time>
      </trkpt>
      <trkpt lat="42.82816" lon="0.30538">
        <ele>1047</ele>
        <time>2022-07-25T11:06:11Z</time>
      </trkpt>
      <trkpt lat="42.82819" lon="0.3058">
        <ele>1037</ele>
        <time>2022-07-25T11:06:11Z</time>
      </trkpt>
      <trkpt lat="42.82811" lon="0.30645">
        <ele>1026</ele>
        <time>2022-07-25T11:06:11Z</time>
      </trkpt>
      <trkpt lat="42.82808" lon="0.30716">
        <ele>1009</ele>
        <time>2022-07-25T11:06:11Z</time>
      </trkpt>
      <trkpt lat="42.82805" lon="0.30751">
        <ele>1002</ele>
        <time>2022-07-25T11:06:11Z</time>
      </trkpt>
      <trkpt lat="42.82788" lon="0.30869">
        <ele>982</ele>
        <time>2022-07-25T11:06:11Z</time>
      </trkpt>
      <trkpt lat="42.82779" lon="0.3091">
        <ele>975</ele>
        <time>2022-07-25T11:06:11Z</time>
      </trkpt>
      <trkpt lat="42.82779" lon="0.30911">
        <ele>975</ele>
        <time>2022-07-25T11:06:11Z</time>
      </trkpt>
      <trkpt lat="42.82761" lon="0.31">
        <ele>956</ele>
        <time>2022-07-25T11:06:11Z</time>
      </trkpt>
      <trkpt lat="42.82755" lon="0.31043">
        <ele>945</ele>
        <time>2022-07-25T11:06:11Z</time>
      </trkpt>
      <trkpt lat="42.82749" lon="0.31111">
        <ele>914</ele>
        <time>2022-07-25T11:06:11Z</time>
      </trkpt>
      <trkpt lat="42.8275" lon="0.3117">
        <ele>888</ele>
        <time>2022-07-25T11:06:11Z</time>
      </trkpt>
      <trkpt lat="42.82744" lon="0.31183">
        <ele>884</ele>
        <time>2022-07-25T11:06:11Z</time>
      </trkpt>
      <trkpt lat="42.82739" lon="0.31188">
        <ele>883</ele>
        <time>2022-07-25T11:06:11Z</time>
      </trkpt>
      <trkpt lat="42.82689" lon="0.31219">
        <ele>871</ele>
        <time>2022-07-25T11:06:11Z</time>
      </trkpt>
      <trkpt lat="42.82643" lon="0.31244">
        <ele>861</ele>
        <time>2022-07-25T11:06:11Z</time>
      </trkpt>
      <trkpt lat="42.82623" lon="0.31251">
        <ele>858</ele>
        <time>2022-07-25T11:06:11Z</time>
      </trkpt>
      <trkpt lat="42.82609" lon="0.31279">
        <ele>849</ele>
        <time>2022-07-25T11:06:11Z</time>
      </trkpt>
      <trkpt lat="42.82589" lon="0.313">
        <ele>840</ele>
        <time>2022-07-25T11:06:11Z</time>
      </trkpt>
      <trkpt lat="42.82582" lon="0.31304">
        <ele>838</ele>
        <time>2022-07-25T11:06:11Z</time>
      </trkpt>
      <trkpt lat="42.82565" lon="0.31318">
        <ele>833</ele>
        <time>2022-07-25T11:06:11Z</time>
      </trkpt>
      <trkpt lat="42.82556" lon="0.31322">
        <ele>832</ele>
        <time>2022-07-25T11:06:11Z</time>
      </trkpt>
      <trkpt lat="42.82519" lon="0.31355">
        <ele>823</ele>
        <time>2022-07-25T11:06:11Z</time>
      </trkpt>
      <trkpt lat="42.82475" lon="0.31388">
        <ele>816</ele>
        <time>2022-07-25T11:06:11Z</time>
      </trkpt>
      <trkpt lat="42.82443" lon="0.31392">
        <ele>815</ele>
        <time>2022-07-25T11:06:11Z</time>
      </trkpt>
      <trkpt lat="42.82422" lon="0.31398">
        <ele>814</ele>
        <time>2022-07-25T11:06:11Z</time>
      </trkpt>
      <trkpt lat="42.82408" lon="0.31393">
        <ele>814</ele>
        <time>2022-07-25T11:06:11Z</time>
      </trkpt>
      <trkpt lat="42.82394" lon="0.31392">
        <ele>814</ele>
        <time>2022-07-25T11:06:11Z</time>
      </trkpt>
      <trkpt lat="42.8238" lon="0.31395">
        <ele>813</ele>
        <time>2022-07-25T11:06:11Z</time>
      </trkpt>
      <trkpt lat="42.8237" lon="0.31399">
        <ele>813</ele>
        <time>2022-07-25T11:06:11Z</time>
      </trkpt>
      <trkpt lat="42.82365" lon="0.31403">
        <ele>812</ele>
        <time>2022-07-25T11:06:11Z</time>
      </trkpt>
      <trkpt lat="42.82344" lon="0.31463">
        <ele>806</ele>
        <time>2022-07-25T11:06:11Z</time>
      </trkpt>
      <trkpt lat="42.82342" lon="0.31499">
        <ele>804</ele>
        <time>2022-07-25T11:06:11Z</time>
      </trkpt>
      <trkpt lat="42.82344" lon="0.3155">
        <ele>801</ele>
        <time>2022-07-25T11:06:11Z</time>
      </trkpt>
      <trkpt lat="42.82353" lon="0.31582">
        <ele>801</ele>
        <time>2022-07-25T11:06:11Z</time>
      </trkpt>
      <trkpt lat="42.82357" lon="0.31612">
        <ele>801</ele>
        <time>2022-07-25T11:06:11Z</time>
      </trkpt>
      <trkpt lat="42.82374" lon="0.31625">
        <ele>801</ele>
        <time>2022-07-25T11:06:11Z</time>
      </trkpt>
      <trkpt lat="42.82392" lon="0.31635">
        <ele>802</ele>
        <time>2022-07-25T11:06:11Z</time>
      </trkpt>
      <trkpt lat="42.82419" lon="0.31647">
        <ele>802</ele>
        <time>2022-07-25T11:06:11Z</time>
      </trkpt>
      <trkpt lat="42.82447" lon="0.31675">
        <ele>802</ele>
        <time>2022-07-25T11:06:11Z</time>
      </trkpt>
      <trkpt lat="42.82485" lon="0.31724">
        <ele>801</ele>
        <time>2022-07-25T11:06:11Z</time>
      </trkpt>
      <trkpt lat="42.82516" lon="0.31753">
        <ele>801</ele>
        <time>2022-07-25T11:06:11Z</time>
      </trkpt>
      <trkpt lat="42.8255" lon="0.31766">
        <ele>801</ele>
        <time>2022-07-25T11:06:11Z</time>
      </trkpt>
      <trkpt lat="42.82563" lon="0.31776">
        <ele>801</ele>
        <time>2022-07-25T11:06:11Z</time>
      </trkpt>
      <trkpt lat="42.82567" lon="0.31782">
        <ele>801</ele>
        <time>2022-07-25T11:06:11Z</time>
      </trkpt>
      <trkpt lat="42.8257" lon="0.31794">
        <ele>800</ele>
        <time>2022-07-25T11:06:11Z</time>
      </trkpt>
      <trkpt lat="42.82554" lon="0.31862">
        <ele>800</ele>
        <time>2022-07-25T11:06:11Z</time>
      </trkpt>
      <trkpt lat="42.82526" lon="0.31942">
        <ele>800</ele>
        <time>2022-07-25T11:06:11Z</time>
      </trkpt>
      <trkpt lat="42.82497" lon="0.32022">
        <ele>800</ele>
        <time>2022-07-25T11:06:11Z</time>
      </trkpt>
      <trkpt lat="42.82461" lon="0.32093">
        <ele>800</ele>
        <time>2022-07-25T11:06:11Z</time>
      </trkpt>
      <trkpt lat="42.82424" lon="0.32164">
        <ele>800</ele>
        <time>2022-07-25T11:06:11Z</time>
      </trkpt>
      <trkpt lat="42.82413" lon="0.32187">
        <ele>800</ele>
        <time>2022-07-25T11:06:11Z</time>
      </trkpt>
      <trkpt lat="42.82385" lon="0.32249">
        <ele>800</ele>
        <time>2022-07-25T11:06:11Z</time>
      </trkpt>
      <trkpt lat="42.82357" lon="0.3231">
        <ele>800</ele>
        <time>2022-07-25T11:06:11Z</time>
      </trkpt>
      <trkpt lat="42.82367" lon="0.32308">
        <ele>800</ele>
        <time>2022-07-25T11:06:11Z</time>
      </trkpt>
      <trkpt lat="42.82409" lon="0.32345">
        <ele>800</ele>
        <time>2022-07-25T11:06:11Z</time>
      </trkpt>
      <trkpt lat="42.8245" lon="0.32382">
        <ele>800</ele>
        <time>2022-07-25T11:06:11Z</time>
      </trkpt>
      <trkpt lat="42.82476" lon="0.32401">
        <ele>800</ele>
        <time>2022-07-25T11:06:11Z</time>
      </trkpt>
      <trkpt lat="42.82493" lon="0.32418">
        <ele>800</ele>
        <time>2022-07-25T11:06:11Z</time>
      </trkpt>
      <trkpt lat="42.82525" lon="0.32462">
        <ele>799</ele>
        <time>2022-07-25T11:06:11Z</time>
      </trkpt>
      <trkpt lat="42.82528" lon="0.32491">
        <ele>799</ele>
        <time>2022-07-25T11:06:11Z</time>
      </trkpt>
      <trkpt lat="42.82533" lon="0.32505">
        <ele>799</ele>
        <time>2022-07-25T11:06:11Z</time>
      </trkpt>
      <trkpt lat="42.82543" lon="0.32516">
        <ele>799</ele>
        <time>2022-07-25T11:06:11Z</time>
      </trkpt>
      <trkpt lat="42.82553" lon="0.32542">
        <ele>799</ele>
        <time>2022-07-25T11:06:11Z</time>
      </trkpt>
      <trkpt lat="42.82563" lon="0.32594">
        <ele>799</ele>
        <time>2022-07-25T11:06:11Z</time>
      </trkpt>
      <trkpt lat="42.82582" lon="0.32603">
        <ele>799</ele>
        <time>2022-07-25T11:06:11Z</time>
      </trkpt>
      <trkpt lat="42.82602" lon="0.32647">
        <ele>798</ele>
        <time>2022-07-25T11:06:11Z</time>
      </trkpt>
      <trkpt lat="42.82645" lon="0.32688">
        <ele>797</ele>
        <time>2022-07-25T11:06:11Z</time>
      </trkpt>
      <trkpt lat="42.82686" lon="0.32704">
        <ele>797</ele>
        <time>2022-07-25T11:06:11Z</time>
      </trkpt>
      <trkpt lat="42.82686" lon="0.32703">
        <ele>797</ele>
        <time>2022-07-25T11:06:11Z</time>
      </trkpt>
      <trkpt lat="42.82731" lon="0.32723">
        <ele>796</ele>
        <time>2022-07-25T11:06:11Z</time>
      </trkpt>
      <trkpt lat="42.82788" lon="0.32744">
        <ele>795</ele>
        <time>2022-07-25T11:06:11Z</time>
      </trkpt>
      <trkpt lat="42.82794" lon="0.32759">
        <ele>795</ele>
        <time>2022-07-25T11:06:11Z</time>
      </trkpt>
      <trkpt lat="42.8282" lon="0.32768">
        <ele>795</ele>
        <time>2022-07-25T11:06:11Z</time>
      </trkpt>
    </trkseg>
  </trk>
</gpx>